GFSWCAN_925_spd_000.txt.gz
Wind_Speed
10 11 13 13 13 15 14 14 14 14 14 15 15 15 16 16 16 16 10 5 6 6 14 16 14 10 8 1 4 7 8 7 6 11 12 11 12 12 12 13 17 15 14 13 12 16 20 2 6 6 8 7 15 16
13 12 13 12 14 13 13 15 15 14 14 15 15 15 15 14 14 12 7 9 10 7 10 25 26 25 18 12 6 2 6 10 5 6 3 4 7 5 10 6 12 7 6 7 3 3 7 10 12 10 10 10 14 15
12 11 12 13 13 14 14 15 15 15 15 15 16 16 15 13 12 10 12 13 15 8 13 16 12 9 9 12 12 6 2 1 9 5 4 4 3 7 2 5 4 3 7 5 5 3 6 4 9 7 11 11 16 13
12 11 11 11 13 12 14 14 15 16 16 17 17 16 15 15 14 12 12 10 11 8 5 3 5 10 8 7 7 14 11 10 10 7 4 5 3 2 6 3 3 3 2 4 5 8 10 12 7 11 11 11 12 12
12 10 10 11 12 13 14 15 16 16 17 17 18 17 16 16 16 14 12 9 8 5 5 9 23 19 9 8 11 11 10 7 8 7 5 6 4 1 5 9 6 5 3 4 7 8 14 5 8 6 11 11 13 13
10 10 9 10 10 12 14 15 16 18 18 19 19 19 19 17 12 6 2 3 6 4 4 4 8 6 8 7 9 10 8 7 6 6 4 5 1 2 5 8 10 12 11 9 5 10 12 13 15 17 11 12 11 12
10 10 9 9 12 13 15 17 19 20 19 19 21 19 15 9 5 4 2 2 3 3 3 5 4 3 5 5 7 7 10 7 7 8 7 7 4 2 6 10 10 6 6 4 4 3 8 7 6 12 8 11 13 14
9 10 9 10 12 13 15 18 20 20 19 19 17 10 5 5 5 7 7 7 5 5 4 4 3 8 2 4 5 6 7 8 9 9 9 10 4 4 8 7 9 5 2 4 5 6 6 3 7 12 13 11 10 10
10 9 9 9 11 13 16 19 21 20 19 14 9 3 1 3 4 3 5 4 6 5 4 3 4 3 6 7 4 6 4 7 6 11 12 8 11 5 9 12 10 12 9 10 8 5 8 6 12 11 12 13 11 9
10 10 9 9 11 13 15 18 20 19 14 7 5 6 3 5 3 5 3 3 4 5 4 5 6 5 7 5 3 4 4 5 8 11 10 13 12 16 15 14 8 9 9 11 7 7 9 12 14 12 13 11 10 11
11 11 10 9 10 12 14 17 17 19 8 4 5 2 6 1 5 3 3 3 4 3 4 4 5 6 6 6 4 3 3 3 8 11 11 12 12 15 18 17 13 11 8 14 10 7 9 15 12 10 9 10 13 12
12 11 10 10 10 11 12 13 14 12 9 7 10 9 5 4 4 4 3 3 5 2 4 3 1 3 3 3 3 2 4 3 5 5 5 14 12 13 14 19 18 15 15 20 8 6 7 2 18 12 12 13 15 14
13 12 11 11 11 12 11 11 11 12 14 4 3 2 3 2 1 4 3 3 2 1 1 1 3 2 2 3 3 3 4 6 6 4 7 10 6 6 10 11 15 15 16 16 14 11 8 16 19 17 16 17 15 14
14 12 12 11 12 10 9 10 10 10 5 3 3 2 3 4 4 3 4 4 2 2 4 4 4 2 3 3 3 4 4 4 3 4 5 6 12 13 14 8 8 17 18 18 15 9 14 13 13 15 19 19 18 17
15 11 11 13 9 9 10 9 7 7 7 2 4 3 7 7 2 5 5 6 6 3 5 6 5 3 4 4 3 3 4 4 2 4 4 5 10 9 11 8 10 4 3 5 10 14 15 18 17 18 19 20 19 19
14 7 14 12 11 10 8 8 12 9 3 3 4 6 7 3 3 2 3 4 4 6 5 1 4 3 3 4 3 6 4 4 4 6 5 5 9 11 11 9 3 9 10 11 17 19 20 19 19 20 20 20 20 19
14 5 4 5 7 5 3 4 5 2 3 4 5 6 7 3 3 3 3 5 5 5 2 2 2 3 5 4 3 2 4 5 7 6 5 8 9 9 6 5 9 12 14 18 19 19 21 23 25 24 16 17 23 25
10 10 6 6 3 6 6 6 4 3 5 6 7 6 6 4 1 2 2 4 5 2 1 1 3 4 3 3 3 4 7 9 11 9 7 8 5 3 9 10 13 17 18 19 21 23 24 23 20 17 24 27 28 26
10 12 8 7 3 4 2 3 4 3 5 6 4 5 4 4 6 8 6 7 5 2 1 2 4 3 2 2 8 9 9 9 8 10 8 7 8 10 13 15 17 19 22 22 23 19 20 22 23 22 24 23 21 19
10 9 7 6 2 4 1 2 2 4 4 3 5 3 6 4 7 5 5 3 1 2 3 3 3 3 4 7 7 8 9 9 8 6 4 5 11 16 16 17 17 23 23 25 24 28 27 23 20 21 21 19 15 15
7 5 6 4 6 4 3 3 2 3 4 4 8 7 4 4 3 2 2 3 2 1 2 2 4 7 10 10 12 11 8 3 5 4 6 8 13 18 19 20 24 25 23 21 19 17 15 11 16 17 20 18 14 11
9 9 4 2 3 2 3 4 4 6 4 4 5 4 2 3 3 3 4 2 3 2 2 4 4 4 4 6 8 11 12 13 17 21 22 22 10 10 14 20 21 16 16 15 15 13 15 14 10 11 14 15 12 13
9 4 4 1 2 0 5 6 2 3 2 3 3 2 1 2 4 6 2 4 3 7 10 5 6 7 6 10 17 19 18 18 12 15 19 21 22 21 21 20 20 19 17 15 19 19 15 15 14 11 10 10 10 13
3 3 2 1 1 2 3 1 2 2 2 2 2 2 3 3 3 4 3 4 6 10 8 9 7 4 10 14 8 11 14 20 21 22 21 22 16 18 20 19 21 21 20 19 18 16 16 18 16 17 16 13 12 12
1 3 1 2 2 1 2 3 1 1 1 2 0 1 2 3 2 3 4 6 8 9 8 13 12 8 8 9 13 17 20 20 18 11 18 24 22 22 21 21 19 19 18 20 16 15 11 12 11 7 1 3 8 7
2 1 1 2 1 1 2 2 2 2 2 0 2 2 2 3 4 4 4 7 5 5 6 5 5 4 5 6 8 13 15 21 22 17 16 21 21 20 14 10 8 6 10 13 13 10 9 1 4 8 6 5 4 5
2 1 2 4 2 1 2 2 2 2 2 2 3 3 3 4 4 2 2 6 3 8 11 9 6 13 14 18 18 16 15 17 18 17 18 16 14 13 12 12 11 10 12 11 10 11 10 8 5 3 2 1 2 2
2 1 2 1 2 3 2 2 1 5 4 3 3 3 3 3 2 3 4 2 5 8 9 3 14 15 15 15 16 17 18 18 18 20 20 18 16 14 13 12 13 14 12 9 7 7 6 5 3 1 1 3 4 4
2 3 2 3 2 2 3 5 5 5 10 10 9 6 4 3 8 10 12 10 5 11 8 12 15 17 17 17 18 18 17 16 15 14 14 10 13 14 12 12 11 11 10 8 9 7 9 8 7 4 5 4 3 5
3 4 2 6 4 5 6 7 10 10 13 12 10 10 8 9 11 12 9 8 8 9 10 14 16 17 18 18 18 20 20 18 17 15 10 10 13 13 12 12 11 11 9 8 8 7 5 3 4 6 6 7 12 15
2 11 16 13 12 10 10 13 16 16 12 10 10 9 10 10 7 6 12 13 14 15 16 16 17 17 18 17 15 15 16 17 16 15 14 13 13 11 11 10 9 8 7 6 6 4 4 4 6 8 9 8 9 10
7 10 10 14 10 7 7 9 10 10 9 8 10 11 8 11 11 10 14 14 14 14 15 16 16 17 15 17 16 16 17 15 13 13 15 12 9 7 5 5 5 5 6 6 6 8 9 12 14 15 15 15 16 15
9 10 10 10 7 6 7 6 7 7 9 9 9 7 8 9 8 8 10 11 13 13 12 13 13 11 9 11 10 10 10 9 12 12 13 11 11 12 11 12 11 10 11 12 13 14 15 19 20 20 18 15 14 14

GFSWCAN_925_spd_006.txt.gz
Wind_Speed
9 10 13 13 12 13 13 13 14 14 14 14 14 14 14 15 15 15 3 4 5 2 7 4 4 3 3 1 0 5 3 5 5 6 2 3 1 3 1 2 2 3 3 3 2 2 7 18 4 5 4 6 3 5
10 12 12 11 12 12 13 12 12 13 13 13 13 13 13 12 12 13 4 5 8 4 6 11 26 27 18 14 1 4 4 2 0 3 3 3 3 3 1 1 4 1 4 4 3 3 2 7 2 0 3 6 5 6
11 12 12 12 10 12 12 13 13 13 13 13 13 12 12 11 10 8 10 9 7 2 6 3 7 18 19 36 27 3 2 2 2 3 2 3 2 2 2 1 1 4 1 1 3 5 4 6 6 8 9 8 9 8
11 12 12 11 10 11 12 13 13 13 14 14 14 13 12 12 11 9 8 9 10 4 2 6 9 12 4 9 22 26 3 3 4 1 1 3 2 2 2 3 3 4 3 2 3 1 3 9 4 4 9 6 8 10
11 12 12 11 11 10 11 14 14 15 15 15 15 14 14 13 12 12 11 7 7 1 2 6 25 7 13 12 25 21 13 5 3 2 1 2 4 4 3 1 1 0 3 3 3 4 3 1 3 6 8 7 11 15
13 13 12 11 11 11 12 14 15 17 16 16 16 16 15 12 8 5 3 3 7 7 2 4 8 6 12 12 12 7 5 3 3 4 3 3 5 5 1 0 5 2 2 4 4 2 4 6 4 5 3 5 5 9
13 11 11 11 11 11 13 15 16 18 18 18 17 16 13 8 7 5 1 6 7 6 1 4 5 5 8 7 2 1 2 2 3 3 4 4 4 5 2 2 5 5 3 5 6 6 4 6 4 3 4 8 16 16
12 11 11 11 11 11 14 16 18 19 19 17 16 13 6 3 5 7 3 10 5 2 1 2 4 5 6 4 3 2 2 2 3 4 2 3 2 1 3 6 6 4 7 5 6 4 2 3 5 5 8 14 12 10
13 12 10 10 11 12 14 16 19 20 18 16 12 4 1 3 3 2 2 5 9 2 1 2 2 3 2 3 3 4 3 2 2 4 4 3 2 4 7 8 5 6 6 6 6 3 5 2 2 6 9 9 12 9
15 13 11 10 11 11 13 16 19 19 18 6 2 0 2 3 3 4 3 1 2 2 2 3 2 3 3 3 3 2 2 3 1 5 3 4 5 6 6 8 9 8 8 6 5 4 4 3 7 7 9 9 12 12
15 13 11 10 10 10 12 15 18 16 6 4 5 1 5 4 2 2 2 2 2 3 4 4 5 3 2 1 3 1 2 2 1 5 4 2 2 5 8 7 7 9 9 9 9 8 9 7 11 8 6 9 11 16
16 14 11 10 9 10 10 12 14 10 6 9 10 9 4 1 2 1 2 2 3 3 3 2 3 4 3 2 2 3 1 2 4 3 1 2 3 6 7 7 9 5 9 10 10 9 7 8 12 9 8 12 15 20
16 14 11 10 9 9 9 9 9 10 9 1 1 2 1 2 3 3 2 1 2 4 3 3 3 1 3 2 2 1 2 4 2 1 1 2 4 8 8 8 11 12 7 10 7 13 13 16 16 15 13 17 20 19
16 13 11 10 9 8 7 6 8 8 3 1 3 3 4 3 4 2 5 4 3 3 4 3 2 1 1 2 2 2 3 3 3 2 4 5 10 10 7 8 8 11 15 8 10 11 10 16 16 19 21 26 23 20
15 12 9 10 10 7 4 6 6 5 2 3 3 3 5 5 4 3 3 2 2 2 3 3 3 2 2 2 2 2 3 2 3 1 2 5 10 10 11 11 10 6 8 6 5 6 10 15 15 12 13 20 22 24
13 8 10 6 8 6 4 7 4 2 3 3 3 3 4 1 4 2 2 2 3 3 2 3 3 2 2 3 2 5 3 2 1 2 4 6 7 9 11 12 11 4 2 8 11 15 20 24 24 16 20 20 22 23
14 2 0 2 7 4 3 3 2 3 3 3 4 3 6 4 3 1 2 2 5 3 1 2 1 2 2 2 3 2 2 2 6 7 4 5 7 10 11 8 3 7 11 14 19 19 23 25 27 25 17 19 22 21
3 7 1 1 4 0 2 4 3 3 4 4 2 5 2 3 3 3 3 4 3 2 2 1 1 2 3 3 2 2 4 7 7 7 8 9 8 11 2 6 11 16 17 17 21 20 23 23 20 17 22 23 26 25
4 6 4 3 1 2 2 4 4 2 4 3 2 3 3 3 3 2 2 5 3 1 2 0 2 2 2 2 5 9 8 7 8 9 8 14 13 6 13 15 16 19 18 19 18 17 18 19 19 19 19 20 18 20
6 4 3 3 1 2 3 3 1 1 3 2 3 4 3 1 4 3 3 2 1 1 1 2 2 1 2 6 6 8 10 10 6 4 2 6 12 15 13 15 15 20 20 21 21 21 20 19 20 19 20 21 20 18
4 2 4 2 2 3 2 3 3 3 2 3 3 4 3 3 3 3 3 4 0 2 3 3 5 7 10 13 15 15 13 4 8 4 5 7 13 17 18 18 17 18 17 16 16 17 18 15 16 21 21 19 21 23
2 6 1 2 2 1 1 3 2 3 3 2 3 3 2 2 3 3 3 4 2 2 2 3 5 6 6 7 11 11 10 21 19 17 17 18 8 7 10 15 19 17 18 18 18 16 15 17 19 20 20 19 14 7
3 1 2 2 1 3 5 5 3 4 4 3 3 2 2 2 4 6 2 2 2 4 11 9 10 11 7 9 13 17 18 19 15 16 18 19 20 20 21 20 20 19 15 13 18 20 17 14 12 11 10 10 10 10
2 2 2 1 3 2 2 3 2 1 2 2 1 2 3 3 3 3 3 3 3 11 6 6 6 3 8 14 8 14 17 19 18 19 19 19 16 16 18 18 20 21 21 21 22 23 23 20 17 16 19 21 18 17
3 5 2 4 1 2 3 2 2 1 1 1 2 3 3 2 3 4 4 4 4 6 9 12 12 8 6 7 12 17 17 17 16 11 15 19 18 18 17 20 21 16 19 24 20 22 21 23 23 21 19 16 15 16
1 0 1 2 1 1 1 1 1 1 1 1 4 3 2 2 4 4 3 3 1 3 4 7 7 7 7 11 8 11 14 19 20 16 13 18 16 15 11 9 11 13 14 15 14 16 18 17 17 17 16 15 14 10
2 2 2 1 1 1 1 2 1 1 2 3 3 2 2 4 3 4 3 3 3 4 8 9 2 12 10 14 18 18 17 18 21 18 17 16 13 12 15 14 12 10 11 10 12 13 12 11 11 10 8 9 8 6
1 1 1 1 2 2 2 2 1 2 2 3 4 2 3 7 7 3 4 9 13 17 14 4 15 14 13 18 22 22 20 17 13 12 18 20 21 20 18 16 14 12 10 9 7 3 6 8 9 9 10 7 4 3
1 2 1 3 3 3 2 4 3 2 1 3 4 3 4 3 3 4 4 7 14 13 7 21 17 15 13 13 13 16 17 15 16 8 8 4 8 11 12 13 13 12 9 8 10 7 5 4 5 7 6 3 8 13
1 3 2 4 4 5 3 2 2 4 6 5 3 3 2 2 4 8 12 12 9 18 23 25 26 26 21 21 20 25 23 16 16 17 7 5 9 12 11 10 8 8 7 8 9 8 5 2 2 3 7 6 14 19
2 2 2 2 3 0 2 2 4 2 1 1 2 3 1 1 5 10 9 19 27 29 25 21 22 20 18 17 19 20 18 23 22 22 21 19 13 10 11 8 5 3 1 2 3 1 13 17 19 20 18 19 18 17
1 2 2 3 3 3 4 4 3 3 4 4 5 5 5 5 7 11 20 25 23 20 19 20 18 16 17 16 13 14 14 15 14 14 16 18 17 16 14 15 15 17 16 16 18 17 17 18 19 18 18 17 17 17
3 4 3 3 4 4 3 3 2 2 3 3 3 3 3 3 4 4 13 16 19 19 19 17 13 12 16 18 17 16 17 17 15 13 13 12 12 11 11 10 10 13 14 17 19 19 20 19 18 18 18 18 17 15

GFSWCAN_925_spd_009.txt.gz
Wind_Speed
9 9 10 10 9 12 12 13 13 13 14 13 13 13 13 13 14 13 4 9 4 1 5 4 3 3 3 1 0 4 3 4 4 4 2 2 1 2 3 2 1 2 3 2 2 3 5 7 6 4 4 5 3 5
12 11 10 11 11 10 11 11 12 13 13 13 13 13 12 12 12 11 4 5 8 4 6 6 18 24 13 6 2 3 3 1 2 3 3 2 2 2 1 2 3 1 4 4 3 4 3 6 2 3 5 5 1 6
12 12 12 12 11 10 11 10 11 12 13 14 13 13 12 11 10 8 8 10 3 2 5 4 5 3 11 28 25 2 3 3 1 3 3 2 2 1 1 2 1 3 2 3 2 4 4 6 5 4 1 6 8 10
10 9 11 11 11 10 10 10 12 13 13 14 14 14 13 13 11 9 8 7 5 2 2 6 9 10 3 9 22 29 3 2 2 1 2 2 1 3 2 3 2 3 1 3 1 1 4 5 4 3 3 7 10 9
11 12 12 12 11 11 10 11 13 13 14 15 15 14 14 13 12 10 11 6 8 2 2 5 21 5 11 8 15 23 14 1 2 2 2 3 1 4 3 1 1 1 4 4 4 5 4 5 3 5 3 4 8 14
14 13 13 12 11 11 11 11 13 14 15 16 16 15 14 12 8 4 3 2 9 6 2 4 6 6 13 7 13 13 11 3 3 4 3 2 3 2 2 3 4 3 3 5 4 3 3 3 1 2 2 4 7 7
12 12 11 11 11 11 11 12 14 15 16 17 16 14 13 8 6 3 2 3 4 6 2 4 6 5 7 4 1 3 6 4 3 3 3 3 1 4 2 2 6 4 5 2 3 6 3 3 4 4 4 8 14 12
12 12 11 11 10 10 11 12 15 17 18 16 14 13 6 4 4 5 3 11 6 4 1 2 4 5 5 2 2 1 2 1 1 4 0 3 2 1 4 9 6 5 6 5 5 0 1 1 2 3 9 12 11 8
14 13 12 10 10 10 11 13 16 18 18 16 12 3 1 2 2 1 1 5 9 0 2 1 2 3 5 3 1 2 2 2 1 4 5 4 3 4 6 6 5 6 8 7 5 4 3 3 4 5 6 5 11 9
15 14 12 10 9 9 10 12 16 17 14 3 4 2 1 1 1 7 2 2 2 1 2 3 2 3 1 2 3 3 2 2 2 5 3 3 4 3 9 9 7 5 9 5 4 3 4 4 6 6 8 6 8 9
15 13 12 10 9 8 8 11 14 14 3 2 4 1 5 5 2 2 2 2 2 2 3 4 5 2 1 1 3 1 2 1 2 3 3 1 3 4 9 9 8 8 6 9 8 8 9 7 8 7 6 7 11 15
16 13 12 10 8 6 7 8 11 8 6 7 7 6 3 1 1 1 2 1 3 3 3 2 3 5 3 2 1 2 2 2 4 1 1 2 1 6 7 10 9 8 8 8 12 9 9 9 11 9 9 11 15 16
16 14 12 10 8 6 5 6 7 8 5 1 1 2 2 1 3 3 2 1 3 3 3 3 3 1 3 2 1 1 2 4 2 1 3 2 3 7 6 7 11 10 9 8 7 14 12 11 13 15 14 18 23 19
15 14 11 9 8 6 5 4 6 5 2 1 2 3 3 3 4 3 3 3 3 3 4 3 2 0 1 1 2 2 3 2 3 2 2 2 3 8 6 8 7 13 12 9 8 8 10 12 10 14 19 24 21 18
15 12 9 9 8 6 4 3 3 4 1 1 2 3 5 4 3 3 3 2 2 1 2 2 1 1 2 1 2 2 2 3 1 1 2 3 9 10 11 10 10 12 11 6 8 6 10 13 14 14 10 16 19 19
14 9 9 6 6 5 3 4 2 2 2 2 3 2 3 0 3 1 2 2 2 3 1 3 2 2 2 2 2 4 2 1 2 2 4 6 7 9 9 9 11 13 6 6 4 12 18 19 16 16 18 12 13 18
14 3 2 3 7 5 3 1 2 3 2 2 3 3 3 4 4 1 1 2 4 2 0 2 2 3 2 3 3 1 2 2 5 7 6 5 8 10 8 11 7 4 6 9 13 14 17 16 19 23 15 15 16 16
6 8 5 7 8 4 2 4 2 2 3 3 2 4 2 1 1 2 3 3 3 3 1 1 1 2 3 3 2 2 3 6 6 6 8 10 10 11 11 2 9 12 13 14 16 20 20 20 20 15 20 20 21 22
10 7 4 5 2 0 1 3 4 1 3 2 3 2 1 1 1 3 3 3 1 1 1 1 1 2 1 2 4 8 7 7 8 10 9 14 12 5 9 13 14 15 16 16 17 17 20 20 19 19 18 19 19 19
8 4 3 2 1 1 2 3 2 1 2 2 3 4 2 1 3 3 3 2 2 1 1 2 1 1 2 5 5 7 8 9 8 5 3 5 12 15 13 14 13 16 19 21 21 21 22 21 20 19 19 19 20 17
4 3 3 1 1 1 1 2 3 1 1 3 3 3 3 2 2 3 3 4 1 1 2 2 3 5 9 12 13 14 12 8 4 3 2 6 10 15 16 16 17 18 17 15 17 19 20 17 18 21 23 20 21 21
4 3 2 2 2 2 1 1 1 3 3 1 4 3 2 2 3 3 4 2 2 2 2 2 4 6 8 8 11 5 8 15 13 12 12 13 7 7 11 15 18 16 17 17 18 17 17 19 21 22 24 22 19 15
3 3 2 1 0 4 4 3 3 3 3 4 3 2 2 3 3 6 2 2 3 4 8 9 12 14 9 7 18 19 17 16 12 14 17 19 20 20 21 19 18 19 17 16 19 20 20 21 21 18 13 12 14 12
3 2 2 2 2 2 2 3 2 2 2 2 2 2 3 3 4 3 2 3 3 10 3 4 5 6 12 15 8 13 14 16 17 18 18 19 15 17 19 19 20 20 20 20 21 21 19 18 17 18 18 18 17 17
4 4 3 4 1 3 2 2 2 1 2 1 2 3 3 3 4 4 3 4 5 7 7 10 12 8 8 7 11 14 15 15 14 11 14 17 17 19 19 23 22 18 20 26 22 26 25 24 22 21 21 21 19 17
3 1 1 1 1 1 1 1 1 2 2 2 3 1 2 2 5 4 4 3 3 3 6 7 6 7 7 10 7 11 13 16 21 16 13 15 15 15 12 11 11 14 15 19 23 23 22 20 20 20 17 15 14 12
1 1 1 1 0 1 1 1 1 1 2 2 1 1 2 4 1 2 4 5 2 8 16 12 12 12 11 13 16 16 17 19 20 15 13 15 15 16 17 15 12 12 14 15 14 15 15 13 11 12 11 10 8 7
2 1 1 1 2 2 1 2 2 1 2 2 4 2 5 7 4 3 3 10 12 11 7 12 12 14 16 17 17 17 14 13 17 21 21 19 17 16 16 17 15 13 13 10 9 7 9 10 11 10 6 6 5 1
2 2 2 3 3 2 2 1 1 2 3 2 3 2 2 2 2 2 1 3 3 12 18 13 12 16 14 11 10 12 15 19 18 8 7 3 6 9 11 10 9 9 9 10 9 7 8 8 9 10 10 9 12 14
3 3 3 9 4 4 1 3 1 1 2 4 4 2 2 2 2 3 8 19 21 18 15 15 14 15 15 14 11 7 6 9 11 11 5 3 5 7 6 6 6 6 7 6 5 4 2 3 5 10 14 16 16 16
2 1 3 3 4 3 4 8 12 10 5 4 4 4 2 1 9 17 24 22 23 23 22 19 18 20 21 21 22 20 14 16 15 12 10 9 8 6 5 3 3 2 3 3 6 7 11 15 16 17 17 17 16 16
3 3 2 4 3 3 3 2 1 2 4 5 6 5 5 5 4 5 4 20 20 17 16 16 14 12 13 13 16 17 17 17 17 16 15 17 16 14 11 11 10 11 12 14 13 14 14 16 16 16 16 16 15 16
3 3 4 4 5 6 4 4 4 3 4 4 4 2 2 2 3 2 4 11 14 13 11 12 15 15 14 14 13 13 13 12 11 10 10 10 10 9 8 9 11 12 13 14 16 15 15 15 15 16 15 14 14 12

GFSWCAN_925_spd_015.txt.gz
Wind_Speed
12 10 11 11 10 11 11 10 11 11 11 12 13 13 13 13 13 11 1 9 4 2 5 4 3 3 2 1 1 2 3 2 2 4 3 2 3 1 2 1 2 7 7 6 4 6 9 3 1 5 4 6 4 3
10 11 10 10 10 10 10 9 10 9 11 11 12 12 12 11 11 11 2 7 7 4 4 4 9 11 7 4 2 0 2 1 2 1 1 1 2 2 1 4 2 3 2 2 5 3 2 3 5 6 7 8 4 4
11 11 11 12 10 9 9 8 8 10 11 10 12 12 11 11 11 8 6 9 2 2 4 4 3 2 9 23 11 2 1 2 1 1 1 1 1 1 2 1 2 3 2 2 2 2 4 4 4 3 6 7 5 4
12 10 9 9 8 9 10 9 7 9 12 11 12 12 12 11 10 8 4 5 2 1 3 1 3 4 3 7 14 19 2 1 1 1 1 1 2 1 1 3 3 2 2 1 4 5 5 4 1 5 4 3 4 7
13 12 11 10 10 10 10 9 9 8 12 12 13 13 12 11 10 8 7 5 5 2 3 5 14 1 3 5 7 12 13 3 2 2 1 1 2 2 1 2 3 2 3 3 1 5 3 2 3 4 4 3 4 8
13 12 11 10 10 9 9 10 10 10 12 13 13 13 11 10 8 4 1 2 8 4 2 2 4 3 4 2 6 6 8 4 2 2 1 2 1 2 2 2 1 2 5 5 4 9 6 5 3 2 1 3 4 6
14 12 11 9 9 8 9 10 10 11 13 14 14 13 10 8 4 2 2 2 5 6 2 3 3 1 2 3 3 3 5 2 3 2 3 2 3 2 2 3 3 6 9 7 5 4 1 4 3 3 4 6 7 8
15 14 13 10 8 8 8 9 10 12 14 16 15 12 8 3 4 3 1 10 4 2 2 2 3 2 3 1 3 1 3 3 4 2 1 3 2 3 4 4 6 6 14 11 6 5 3 2 1 3 4 4 7 8
17 15 13 10 9 7 7 8 10 12 14 16 10 3 2 1 1 3 1 6 6 2 2 1 2 1 4 2 1 2 1 3 1 4 4 4 4 5 2 5 7 8 8 11 11 7 5 2 1 3 6 7 6 7
18 15 14 11 9 7 6 7 10 12 12 1 1 2 2 1 2 5 1 2 2 3 2 3 1 1 2 2 2 1 1 1 3 3 3 5 4 3 2 3 4 7 9 10 8 6 5 3 0 3 3 2 3 6
19 16 14 12 10 6 5 6 9 11 1 0 1 0 1 4 2 2 1 2 2 2 3 3 3 3 1 2 2 1 1 1 2 2 3 3 3 2 4 4 5 6 7 7 9 8 9 10 8 4 5 7 9 11
20 17 14 13 10 6 4 3 6 4 4 3 2 2 1 2 1 2 1 1 3 1 3 2 1 3 1 1 2 1 2 1 3 2 3 3 4 1 6 9 9 9 10 9 10 10 11 12 13 9 6 9 11 11
19 17 15 13 10 6 4 2 2 4 1 2 2 2 1 1 1 3 3 2 2 2 1 2 1 1 2 2 2 2 3 4 1 3 1 2 3 6 8 8 9 11 12 13 12 11 11 14 11 12 8 8 12 14
19 15 14 12 9 7 5 2 1 2 0 1 1 0 2 2 3 1 2 1 2 3 4 3 1 1 0 2 1 2 2 2 3 3 2 3 9 11 9 8 10 12 11 11 11 12 13 12 12 9 8 9 12 15
19 14 13 11 9 7 5 3 1 1 0 1 2 2 3 2 3 2 2 1 1 3 3 2 1 1 1 2 1 2 2 4 1 2 2 4 9 12 14 11 12 12 11 11 12 10 12 8 8 6 6 9 11 14
18 12 11 11 10 8 6 3 1 1 1 1 2 2 1 2 1 2 2 1 2 3 1 0 1 1 1 2 2 4 2 1 2 1 5 9 11 11 12 12 10 12 14 11 11 11 8 7 9 12 11 10 10 11
17 4 13 12 10 8 5 2 2 2 1 2 1 1 2 2 2 1 1 3 5 3 2 1 2 2 2 2 3 2 2 1 4 7 8 9 11 11 10 10 11 9 6 6 2 7 12 14 15 16 15 14 15 15
4 11 14 14 13 10 4 3 2 2 2 1 1 2 1 1 0 1 1 2 3 3 2 1 2 3 3 3 2 1 3 6 7 9 10 10 10 13 11 7 2 1 4 8 12 14 16 18 18 17 17 17 19 19
15 14 15 14 7 3 3 3 2 1 0 1 1 1 1 1 1 2 2 3 3 1 2 2 2 3 3 2 4 7 7 8 8 9 9 13 12 3 7 8 8 10 12 14 14 14 16 17 17 17 15 19 14 18
14 12 10 6 2 2 2 1 1 2 0 2 0 2 2 2 3 2 2 2 2 2 2 3 3 2 2 4 5 6 7 7 6 6 4 4 8 10 10 9 9 13 18 19 18 21 19 20 21 21 22 16 19 19
8 7 4 2 1 1 1 1 1 1 1 1 1 2 2 2 0 2 3 3 2 1 2 2 2 3 7 10 13 13 12 11 4 1 2 2 7 12 12 13 14 16 17 17 17 17 19 20 19 21 21 21 22 23
4 3 2 1 1 1 1 1 1 1 0 1 1 2 1 1 2 2 3 2 2 2 2 2 5 6 6 6 10 3 6 10 11 11 12 11 6 7 11 13 16 15 17 16 17 18 19 22 23 22 24 23 23 23
3 2 1 2 1 2 1 0 1 2 0 1 1 1 1 1 2 4 1 1 2 4 6 7 10 11 8 3 11 14 14 13 10 11 13 16 17 18 19 18 18 19 18 18 21 22 21 22 22 21 25 23 22 21
2 2 2 2 1 0 0 2 1 1 1 1 1 1 1 2 3 2 2 2 3 10 1 4 4 5 8 10 7 11 14 16 18 19 18 19 16 17 19 18 19 19 19 20 22 20 19 20 21 22 20 20 20 19
2 3 1 2 2 1 2 1 1 0 0 1 2 2 2 2 2 2 2 3 5 5 5 10 11 8 6 7 12 15 18 17 16 12 15 18 18 19 19 22 21 13 13 18 17 18 16 16 17 18 19 18 18 17
2 1 2 1 1 0 1 0 0 1 1 2 2 1 1 1 4 3 2 4 3 3 4 6 6 6 7 10 6 11 12 17 23 17 16 18 15 17 15 15 16 13 16 22 19 18 17 17 17 17 16 14 14 13
1 1 1 1 0 1 1 1 1 1 2 2 2 2 2 3 4 3 3 4 2 5 13 14 12 12 9 11 13 17 19 22 18 14 15 18 21 18 16 17 17 13 13 15 15 15 16 15 15 14 12 11 9 7
1 1 1 1 1 1 0 1 1 2 1 2 3 1 2 3 1 2 1 3 9 15 18 17 17 14 12 14 16 17 17 20 24 21 20 19 17 16 16 17 16 14 13 11 11 11 11 10 10 8 8 8 7 7
1 1 1 0 1 1 1 3 2 1 1 2 6 4 4 3 2 1 4 8 12 12 11 12 10 12 14 14 12 9 10 11 15 14 13 8 11 9 9 9 10 11 10 10 10 8 8 8 9 9 9 9 9 10
1 3 2 1 2 2 2 3 5 5 2 2 2 2 2 3 4 4 6 8 9 9 8 8 7 11 12 12 11 10 9 8 9 13 9 8 9 6 6 6 6 5 6 7 8 9 6 8 8 9 9 10 9 9
2 3 1 2 3 2 3 4 3 2 2 3 4 6 4 2 5 8 5 5 6 4 5 5 5 4 6 6 7 9 8 7 9 9 7 7 5 4 3 2 2 3 2 4 5 5 6 6 7 8 8 9 8 7
3 5 8 12 6 3 3 3 3 3 3 4 4 4 4 4 4 4 3 4 5 6 5 6 7 5 5 6 6 6 7 7 6 6 6 6 6 7 6 6 5 5 6 7 7 8 8 8 8 8 8 7 6 6
4 4 4 5 5 4 5 3 4 4 4 4 3 2 2 2 3 1 3 4 2 3 5 6 7 7 7 7 8 9 9 9 9 7 6 6 6 6 6 5 5 5 6 7 7 8 8 8 7 6 6 6 6 4

GFSWCAN_925_spd_021.txt.gz
Wind_Speed
13 11 11 11 11 9 10 11 11 9 10 12 13 14 15 17 19 14 5 6 7 5 5 4 5 7 4 5 8 5 3 9 7 12 11 9 10 9 15 13 13 13 13 12 13 16 18 2 6 10 6 5 10 10
14 11 9 10 10 11 12 11 10 8 8 12 12 12 13 14 15 12 4 5 6 7 6 6 8 10 10 7 8 1 6 7 4 6 10 7 10 6 3 10 9 6 8 5 6 9 7 6 7 6 5 5 5 6
16 14 11 12 11 9 8 9 9 9 7 10 12 12 12 13 12 9 8 8 8 5 8 10 6 8 10 13 8 5 5 7 2 5 7 6 6 4 8 12 8 14 8 7 6 6 9 5 6 11 8 7 7 3
17 16 13 12 11 9 9 9 10 10 9 9 11 12 12 12 12 8 7 7 7 7 5 5 4 6 3 10 12 10 8 8 7 7 8 7 5 7 11 6 9 6 3 11 11 7 1 10 9 9 7 6 4 5
18 16 14 13 11 11 11 10 10 10 10 10 11 12 12 12 12 9 7 5 3 7 5 4 3 3 6 8 10 10 9 6 8 7 6 8 10 3 7 12 9 4 1 4 2 9 7 5 8 7 6 6 6 5
19 18 16 14 13 12 12 11 10 10 10 10 11 11 11 11 11 6 5 3 3 4 4 3 6 5 6 8 9 9 9 6 7 7 5 7 4 4 7 11 16 2 3 8 7 9 6 5 2 5 5 5 3 7
20 19 17 14 12 11 10 10 10 9 10 11 11 12 11 9 6 5 5 4 4 4 4 4 5 7 7 9 9 6 8 6 6 8 8 7 5 6 11 12 7 9 5 3 5 7 9 2 6 5 4 3 2 10
22 21 19 16 13 11 10 10 10 9 10 11 12 13 9 5 3 4 2 5 2 5 5 4 4 7 11 8 7 6 6 6 6 7 6 7 6 6 8 14 14 6 2 7 8 4 8 7 5 2 3 1 3 9
23 22 20 17 14 12 11 9 9 9 10 11 11 2 3 4 3 0 5 5 4 5 4 4 5 3 8 5 3 4 4 7 5 8 9 6 7 7 7 11 12 6 4 9 12 10 12 6 6 5 4 5 2 5
24 22 20 18 15 13 10 9 8 8 9 8 4 6 3 3 2 2 4 4 5 4 4 6 2 1 6 2 5 5 4 4 2 6 7 9 10 8 9 8 4 6 5 9 10 9 9 6 2 4 5 10 5 5
24 22 20 18 15 13 10 8 7 7 2 5 5 2 6 5 3 5 2 4 5 4 5 6 2 1 3 4 1 1 2 3 4 4 4 5 8 8 9 3 3 5 8 9 9 9 10 9 4 6 6 10 14 9
25 23 20 18 15 12 10 8 4 3 2 4 2 0 4 3 4 4 3 3 5 3 3 2 3 4 1 3 3 3 4 3 4 5 3 7 5 8 8 7 9 10 8 8 10 11 12 12 10 10 6 10 12 6
28 24 20 18 15 13 11 8 6 5 3 3 4 4 2 3 1 5 7 4 3 4 1 1 5 3 1 2 4 4 4 5 3 4 5 3 4 4 4 5 5 11 13 13 11 11 13 14 14 14 11 10 9 16
28 22 20 18 15 14 10 8 5 2 5 4 4 1 4 5 5 1 1 2 1 2 2 3 2 1 2 4 3 4 3 3 3 5 1 2 3 3 4 6 8 10 12 15 13 13 12 15 13 13 15 15 14 12
25 23 19 16 15 13 10 8 6 5 6 4 4 3 8 6 2 3 2 3 2 2 2 4 1 3 2 3 3 2 3 5 1 2 1 1 4 6 9 9 11 11 12 12 18 13 12 14 13 13 16 17 12 10
25 19 15 16 15 13 10 6 5 5 3 3 3 5 5 3 5 4 4 6 2 1 4 3 3 3 3 3 2 5 4 4 2 2 4 6 7 9 11 11 9 13 15 15 16 16 13 13 16 16 9 11 9 6
21 10 18 16 15 12 11 5 7 5 3 4 4 5 4 1 4 3 1 1 5 1 1 2 2 4 3 2 4 4 5 5 6 6 6 10 13 14 14 10 14 14 13 13 14 13 12 8 3 4 5 7 9 9
10 16 20 19 16 11 7 5 5 4 5 7 2 3 1 3 4 4 1 3 3 3 5 2 3 5 3 3 4 4 5 6 7 7 10 11 13 17 16 12 12 11 12 12 10 6 6 7 9 10 13 15 20 21
17 19 20 19 13 3 6 5 4 3 5 2 1 3 3 3 4 4 1 7 7 4 5 3 4 4 3 2 6 7 8 9 9 9 8 13 13 10 9 3 5 4 4 7 9 10 12 12 11 12 14 16 16 17
16 17 19 13 4 5 3 3 3 4 2 2 4 2 2 1 2 3 4 3 4 3 4 4 5 3 6 4 6 8 8 8 5 5 5 3 7 4 4 4 6 11 14 16 17 14 16 15 15 17 19 20 19 17
15 12 9 5 7 5 4 2 4 1 3 3 3 4 3 2 2 2 3 5 4 3 5 6 5 6 8 10 11 10 8 9 4 3 3 2 5 7 8 11 15 15 13 11 12 14 15 15 17 18 20 23 30 20
8 7 4 4 3 3 3 1 2 2 3 0 2 4 3 3 3 2 2 2 3 4 3 5 6 8 7 7 8 9 7 4 3 5 7 5 3 7 9 12 17 15 16 16 17 16 19 22 23 24 24 23 28 20
6 2 4 3 2 1 3 3 1 1 2 2 1 2 1 1 1 3 2 1 2 3 4 6 10 9 8 9 2 2 5 6 6 8 10 13 15 16 17 16 17 18 16 18 19 20 22 25 26 27 30 30 25 18
0 3 2 2 4 2 3 2 1 1 1 1 1 1 0 1 2 1 2 2 3 7 3 5 5 3 5 7 4 9 11 13 14 14 14 14 15 17 19 18 17 18 18 19 22 21 21 20 21 19 17 16 16 16
2 3 2 3 2 2 1 2 1 0 2 2 1 0 1 1 1 1 2 2 3 3 3 8 9 7 5 6 9 12 16 15 11 8 11 17 20 19 15 14 17 21 22 18 11 16 14 13 12 13 15 15 16 15
0 3 1 0 1 1 1 1 2 3 2 2 1 1 1 0 2 2 2 3 2 3 5 6 7 7 7 10 6 8 8 13 16 15 12 15 9 15 14 12 11 10 17 21 20 17 15 12 12 13 14 14 10 12
2 2 2 3 2 1 1 2 2 2 2 2 2 2 2 2 2 2 2 3 2 7 11 12 13 13 8 12 13 16 17 9 13 14 14 12 13 13 14 14 13 13 13 12 12 12 12 11 12 12 11 10 9 7
0 1 2 3 2 3 2 2 2 2 1 3 3 2 2 1 1 1 1 2 9 12 11 8 12 9 9 11 14 13 15 12 10 13 15 15 15 14 14 14 13 15 15 12 10 12 10 10 9 8 7 7 7 7
2 3 3 4 4 4 1 1 2 3 3 2 3 3 2 1 1 2 5 12 13 8 11 8 4 3 7 12 7 6 7 10 12 9 10 8 11 12 12 13 13 12 12 9 12 11 12 10 9 7 5 5 4 2
3 4 2 2 3 2 3 4 8 7 12 14 11 8 5 4 13 17 13 11 10 14 14 13 15 13 8 6 7 7 8 7 8 9 8 7 10 10 9 9 8 8 7 6 6 5 2 3 3 3 2 2 2 1
4 6 12 10 9 8 9 12 15 16 12 10 9 10 9 6 7 7 10 9 10 10 9 9 9 9 10 10 9 8 11 11 11 9 8 9 9 8 6 4 3 2 2 1 1 1 3 3 0 0 1 2 3 4
5 6 9 13 7 4 8 11 12 10 9 9 10 10 9 7 8 6 7 6 6 7 5 5 5 7 8 8 9 11 11 11 8 6 6 8 7 5 3 3 3 3 2 1 0 1 1 2 1 1 0 1 2 2
8 7 8 9 9 8 8 6 8 7 7 7 7 7 7 7 8 5 3 2 8 9 8 9 9 9 6 8 9 9 10 8 8 7 5 4 4 5 7 6 4 2 1 1 1 1 1 0 1 1 2 3 3 3

GFSWCAN_925_spd_024.txt.gz
Wind_Speed
16 15 12 12 10 10 8 11 13 13 11 14 16 18 19 21 19 18 9 7 7 6 9 7 9 9 11 7 8 11 4 3 5 7 8 8 9 10 15 14 10 13 11 12 11 14 20 13 11 4 1 6 8 9
16 16 14 11 10 10 10 10 11 11 11 11 14 16 17 19 19 14 6 9 9 6 7 12 11 12 10 10 6 8 8 3 4 6 8 8 11 10 9 8 14 3 11 9 9 7 7 11 13 11 8 4 7 7
18 17 16 13 11 11 9 8 9 10 11 11 12 14 15 17 16 12 10 10 15 7 10 13 9 9 8 12 8 4 4 9 6 8 6 6 7 8 5 9 8 6 3 3 3 6 9 10 12 10 9 8 6 3
18 18 16 14 12 11 9 9 9 11 12 12 12 13 15 15 15 13 10 10 10 9 5 8 3 5 5 9 11 12 7 10 10 7 7 7 8 10 6 4 8 5 8 6 6 7 9 9 11 8 8 8 8 14
17 17 17 15 13 11 10 10 10 11 11 12 12 13 14 15 16 14 10 8 4 7 5 6 4 5 5 7 10 10 8 5 6 7 8 9 10 10 9 7 7 8 4 3 4 11 8 7 8 8 7 7 7 8
19 17 15 15 14 12 11 11 11 10 11 12 12 13 14 15 14 10 4 5 7 7 4 4 8 5 5 6 9 10 10 5 5 7 6 8 8 2 6 8 7 10 8 9 3 3 7 11 2 2 4 8 12 8
21 19 17 16 15 12 11 10 10 10 11 11 12 13 14 14 12 6 3 6 10 7 4 4 3 6 9 9 8 7 9 6 6 8 9 10 7 4 6 12 7 9 8 8 6 5 6 3 7 8 6 4 11 11
22 19 18 17 15 12 10 10 9 10 10 11 13 14 14 10 8 7 3 7 7 7 5 4 4 7 11 6 7 7 7 7 7 7 8 9 8 5 6 8 11 4 4 5 6 8 6 9 1 7 22 1 7 6
22 20 19 18 16 13 11 10 9 9 9 11 12 8 3 3 4 1 5 6 5 6 5 4 3 4 8 8 3 2 3 7 5 8 9 8 9 7 8 11 10 9 5 1 6 5 10 12 9 6 6 11 6 5
25 23 21 19 17 14 12 10 9 8 8 9 4 4 3 4 3 3 4 3 4 5 5 5 3 2 5 7 3 2 4 4 3 6 5 10 10 11 10 9 6 3 3 2 5 7 10 10 5 4 8 3 1 6
25 26 22 19 17 15 13 10 7 7 5 5 4 2 4 4 5 2 2 4 4 3 5 7 6 1 4 3 3 3 3 2 3 4 2 4 7 10 7 10 7 2 2 5 7 8 12 12 1 10 7 7 11 5
30 28 22 20 18 16 13 10 7 5 5 6 9 6 7 4 1 2 3 4 5 4 3 5 3 4 3 3 1 2 4 4 5 1 3 6 4 7 7 9 7 6 6 9 15 9 12 14 14 13 11 7 10 5
30 28 23 21 18 16 12 10 9 9 8 6 5 3 3 3 1 5 7 6 4 2 1 3 1 4 0 2 3 5 2 6 0 4 4 4 6 3 3 3 3 4 7 10 14 19 24 14 16 14 15 16 15 9
36 28 23 21 18 15 12 9 7 2 4 4 5 2 5 5 6 2 2 3 3 2 3 1 2 2 3 2 3 4 4 2 3 5 2 4 5 5 4 6 7 6 7 10 13 16 18 21 15 16 18 16 17 8
32 26 22 20 17 15 11 9 7 4 5 4 4 3 8 8 2 3 4 2 1 3 3 3 3 4 2 2 3 3 3 4 1 3 3 4 1 3 7 7 7 8 10 7 13 18 16 18 21 18 18 17 17 13
28 22 18 18 17 14 11 8 6 6 4 3 4 5 6 3 2 4 4 4 4 2 3 3 1 2 4 2 3 4 5 3 3 4 3 4 6 9 11 12 14 16 14 14 16 17 18 17 18 20 23 21 26 19
23 11 20 17 17 14 13 7 9 4 4 3 5 5 3 5 1 2 4 3 3 3 1 1 2 2 2 2 3 3 3 1 3 4 3 7 8 10 11 15 16 15 13 14 11 16 18 18 20 23 11 17 8 19
6 22 22 21 19 13 7 7 4 5 6 7 3 2 3 2 5 2 5 3 5 3 1 2 5 3 2 2 1 4 7 7 7 7 8 9 9 11 13 12 13 9 11 12 13 13 14 12 4 6 17 9 19 21
18 21 22 24 17 4 8 7 6 3 7 3 3 1 2 4 3 5 2 2 2 3 3 1 3 3 3 3 7 8 8 8 8 9 8 10 11 11 12 12 11 9 9 9 7 2 7 9 10 10 11 14 16 17
18 20 21 17 6 4 4 3 4 4 2 1 1 4 2 4 3 4 2 4 5 4 2 3 5 3 3 3 2 5 7 7 5 5 5 5 8 8 7 5 7 9 12 14 16 14 14 15 17 19 20 20 18 16
16 13 11 6 6 9 4 3 4 2 2 2 2 2 3 2 1 4 4 6 5 2 3 2 4 7 11 9 10 7 5 5 3 2 4 3 6 6 8 10 14 13 15 13 12 14 13 12 14 16 17 18 21 25
13 10 4 5 4 2 3 2 2 3 2 2 2 2 0 2 4 4 6 2 3 3 3 6 7 7 8 7 7 5 5 6 5 4 3 1 2 5 8 11 13 12 13 14 15 13 15 18 21 21 22 21 21 28
8 4 5 4 2 1 5 3 2 3 2 1 2 2 1 2 2 5 2 1 2 3 4 8 10 7 7 6 3 1 2 3 5 7 9 12 13 14 13 9 15 14 15 17 19 20 20 21 22 23 22 20 24 26
2 4 3 3 6 4 3 1 2 3 4 2 1 1 1 2 1 1 2 2 2 5 3 5 5 2 2 1 2 6 7 9 9 12 13 13 10 8 13 16 19 17 19 19 24 25 26 28 26 23 16 14 16 14
2 3 2 3 3 2 1 2 2 0 2 2 1 1 1 1 0 1 2 2 2 4 1 4 5 5 3 4 7 8 13 12 6 4 11 14 13 11 14 15 17 18 17 16 13 10 10 11 12 13 14 15 15 15
0 3 2 1 2 1 1 2 2 3 2 3 1 2 2 1 0 2 2 2 2 1 3 4 5 5 5 9 6 4 6 10 12 11 9 9 9 14 16 12 12 11 14 14 13 9 11 15 13 13 13 13 9 12
2 1 2 3 2 2 0 1 2 2 2 3 3 3 2 1 1 1 2 3 2 9 10 15 14 9 7 8 7 12 14 7 8 8 7 7 9 9 13 12 11 12 16 12 11 12 12 12 12 12 11 9 8 7
1 1 2 2 2 2 2 1 2 4 4 4 3 0 2 2 1 1 1 1 5 6 9 10 5 12 14 12 9 9 9 11 9 13 14 14 12 11 11 12 14 16 16 11 8 9 8 8 8 7 7 8 8 7
2 2 2 4 4 4 4 2 1 2 1 5 3 2 2 1 2 3 6 8 7 3 6 5 4 6 10 12 11 10 7 12 11 8 10 8 12 14 13 13 11 10 8 8 11 13 13 13 13 9 7 6 4 3
3 5 3 4 2 1 2 3 5 5 8 10 5 4 3 5 9 11 12 11 10 10 10 7 6 8 7 8 11 9 8 9 10 9 7 8 11 11 10 9 9 9 7 6 6 4 3 3 3 4 3 3 3 2
6 7 4 4 5 8 9 13 11 14 12 5 3 6 6 6 10 14 15 14 14 15 16 12 9 7 8 7 6 10 11 10 10 10 7 10 11 9 7 3 3 3 2 2 2 4 7 6 4 1 2 3 4 3
3 4 6 9 10 10 10 8 9 10 10 9 8 6 5 7 7 5 7 8 9 7 2 3 7 11 8 8 9 13 13 12 12 12 16 13 10 8 3 2 4 4 3 2 2 0 2 3 3 2 2 1 1 3
2 3 5 6 6 5 6 5 4 5 7 7 7 8 8 6 5 4 6 7 5 8 8 6 7 9 7 12 12 12 12 11 9 7 7 6 5 5 11 10 6 3 2 3 3 2 0 1 2 2 3 3 3 3

GFSWCAN_925_spd_030.txt.gz
Wind_Speed
13 12 11 10 11 11 11 11 11 13 15 16 17 18 19 21 20 17 2 15 7 1 6 3 3 3 5 4 3 5 3 6 5 4 3 2 2 3 1 4 4 6 5 5 2 3 6 6 4 2 4 3 6 4
14 13 12 11 11 11 10 11 11 11 13 15 16 17 17 18 19 17 5 10 12 4 6 14 24 18 14 7 2 6 5 1 1 3 2 1 2 2 3 3 4 2 6 5 6 4 2 5 6 4 3 4 5 7
15 15 14 13 12 12 11 10 11 11 12 14 15 15 15 15 16 16 11 13 8 2 5 3 5 5 7 10 4 3 3 1 2 3 2 2 1 2 3 2 3 5 3 4 3 4 1 3 3 4 7 10 6 10
17 16 15 14 13 13 11 11 10 10 12 14 14 15 15 15 15 16 12 7 5 5 1 6 10 4 3 3 1 3 4 3 2 3 1 0 0 1 2 4 2 4 4 2 1 3 3 6 5 3 7 12 14 2
16 15 15 14 13 13 12 11 11 11 12 13 14 14 14 15 17 15 7 3 6 2 2 5 22 11 9 2 1 2 4 3 2 3 2 2 2 3 3 1 3 3 2 3 2 5 3 2 3 5 5 6 10 10
16 16 14 14 13 12 12 11 11 12 12 14 14 14 14 14 16 6 3 2 7 5 2 3 5 3 8 6 2 1 4 2 3 3 3 3 3 3 1 0 4 4 4 4 3 5 2 3 5 2 2 3 4 4
15 14 15 14 14 13 11 11 11 11 11 14 14 14 13 12 13 3 4 1 7 8 2 4 4 4 11 4 2 1 0 2 3 1 2 2 3 3 1 3 5 3 6 4 4 6 7 4 1 4 8 11 13 9
14 12 14 15 15 13 12 11 10 10 11 13 14 14 14 11 9 7 1 3 3 1 0 1 4 3 2 1 1 3 1 2 2 3 2 2 2 2 3 5 2 3 5 6 7 7 5 5 8 6 4 7 6 4
18 16 15 15 15 14 13 11 9 9 10 12 13 10 4 2 2 2 2 2 2 1 1 1 1 3 4 2 3 2 3 1 2 3 3 4 2 4 7 7 7 7 7 8 6 7 7 7 6 7 8 6 2 4
22 20 19 17 16 14 13 11 8 8 9 10 7 2 2 3 4 5 0 1 3 1 1 3 1 2 3 1 3 2 1 2 1 5 2 3 4 4 6 4 6 7 8 7 7 4 5 5 7 7 2 3 3 4
23 23 21 19 17 15 14 11 8 7 5 1 2 2 5 4 2 1 2 2 2 3 3 4 5 3 1 2 2 1 1 2 1 5 4 2 3 1 4 9 8 8 10 9 8 6 8 7 6 7 8 8 3 3
21 22 22 20 18 15 14 11 8 5 1 4 9 9 4 1 1 1 3 3 4 4 3 4 4 5 2 3 3 2 1 2 4 3 3 1 2 4 6 7 8 9 10 9 14 10 13 12 10 9 10 15 17 10
20 20 23 21 19 16 14 11 9 7 8 3 2 2 2 2 1 4 4 3 3 2 2 2 2 3 3 4 3 2 1 4 2 2 3 2 3 4 5 5 7 13 15 13 10 12 11 11 13 13 12 16 16 15
19 17 24 23 20 16 14 11 8 3 2 1 2 3 4 4 4 4 3 3 4 2 2 2 2 3 1 2 2 2 4 2 3 3 1 1 1 3 4 4 6 6 8 8 9 12 7 6 8 11 11 12 13 11
17 17 23 23 19 17 14 10 7 5 2 2 2 4 6 5 3 1 2 2 3 1 2 2 2 3 0 1 2 1 2 2 3 1 1 1 1 3 6 6 7 7 6 7 12 10 11 10 8 10 10 13 9 10
16 24 22 24 21 17 14 10 8 3 3 3 4 3 4 2 3 1 3 2 2 3 2 3 1 2 2 3 1 4 0 1 1 1 2 1 4 4 4 5 7 10 12 13 15 15 14 14 15 15 13 11 4 5
23 7 25 24 20 16 14 6 5 4 3 4 3 2 1 1 2 1 1 2 3 3 1 2 2 3 2 1 1 3 2 1 2 2 1 0 3 6 6 9 11 13 13 13 13 14 14 14 13 12 9 11 6 0
13 28 27 25 22 17 7 4 3 4 5 4 2 3 2 3 2 1 2 2 3 2 2 1 2 2 2 2 2 1 3 2 2 1 3 3 6 11 12 11 14 15 15 15 14 12 13 14 10 5 6 7 6 8
31 29 27 25 21 7 7 5 5 3 5 3 3 1 3 1 1 1 1 4 2 2 2 2 1 0 2 2 2 2 2 1 2 3 3 8 10 11 13 14 14 12 10 8 6 6 2 7 5 4 5 6 8 7
25 24 25 21 2 2 2 3 6 2 3 3 2 2 2 2 2 1 4 4 3 2 3 2 1 1 3 2 1 2 2 1 2 3 3 4 8 10 6 7 8 6 8 11 10 11 11 11 11 12 11 9 12 12
21 18 18 12 3 5 3 3 2 3 2 1 2 1 1 1 3 3 3 4 4 0 0 2 2 1 4 2 2 0 2 2 2 2 2 3 9 6 3 8 11 12 9 8 9 12 14 13 14 14 15 15 16 17
11 17 5 8 3 4 3 3 3 2 2 3 0 2 2 3 3 2 3 3 1 1 1 1 1 2 3 1 3 2 4 6 6 5 4 4 1 2 4 6 8 7 8 9 11 11 13 15 15 15 16 17 18 17
16 7 4 7 3 2 4 6 2 2 2 4 3 3 3 2 2 4 1 1 3 2 1 3 4 3 4 4 3 2 2 3 2 4 4 4 4 4 6 6 6 7 8 11 14 15 16 16 18 18 18 19 20 18
5 3 2 2 3 3 2 2 3 3 4 3 3 2 2 1 2 2 2 2 3 3 2 5 3 2 2 2 1 1 2 3 7 6 5 7 8 6 7 10 9 11 12 12 13 15 15 16 17 20 20 20 20 20
1 4 2 4 3 2 1 2 2 3 2 2 2 1 1 1 2 1 2 3 2 3 3 3 3 3 1 1 1 1 4 4 3 2 4 6 9 13 14 12 12 11 13 16 14 16 15 13 11 8 8 10 7 5
1 2 3 3 3 1 1 1 0 1 0 2 1 2 1 1 2 3 2 2 2 2 0 2 2 2 2 3 3 3 4 2 1 2 5 7 9 14 10 5 2 4 6 4 3 6 10 11 9 9 10 10 16 21
1 2 2 2 1 2 2 2 1 1 2 3 2 3 3 2 3 3 2 2 2 2 2 3 6 6 4 4 4 7 5 5 5 2 2 8 10 11 8 7 9 4 3 6 8 2 8 8 9 15 14 16 22 19
2 1 1 0 1 0 1 2 3 3 3 3 2 4 2 3 2 1 2 1 5 4 5 4 6 3 1 4 7 8 10 9 10 6 8 9 9 7 6 12 12 10 12 11 7 4 5 6 4 17 19 18 15 14
2 2 0 1 2 3 3 3 3 4 3 3 2 2 2 2 1 2 2 3 5 2 1 3 8 9 9 11 13 14 14 14 7 7 6 3 6 11 11 10 10 9 8 9 10 12 16 18 15 12 9 8 7 9
3 4 3 3 3 4 2 4 2 2 2 3 3 2 2 3 1 7 4 5 7 9 10 10 13 13 16 14 13 10 10 3 17 19 9 7 10 13 12 11 9 6 4 4 3 3 3 4 3 6 6 4 8 5
4 4 3 1 2 2 2 3 5 5 3 3 2 3 3 2 1 9 14 13 13 14 16 17 18 19 16 19 15 12 14 20 22 19 18 16 12 8 4 8 13 12 10 9 7 4 6 4 5 6 9 9 11 11
4 4 3 2 2 2 3 3 3 3 2 2 1 1 1 1 2 5 12 22 21 17 22 19 12 5 19 20 17 17 21 21 19 18 17 16 15 12 12 13 10 8 7 9 2 8 10 9 11 12 9 7 7 6
1 2 3 5 4 3 3 3 3 3 3 3 4 5 5 4 4 5 3 10 18 22 17 5 21 23 22 21 19 17 16 15 13 10 8 7 8 8 7 7 6 6 6 8 7 5 8 10 10 8 8 7 6 4

GFSWCAN_925_spd_033.txt.gz
Wind_Speed
17 15 12 11 10 10 9 10 11 12 13 15 16 17 18 19 21 18 2 10 6 1 5 3 2 1 4 3 2 5 2 4 4 4 2 1 1 2 1 2 1 3 4 2 3 4 5 3 5 3 5 1 3 3
17 15 13 11 10 10 10 10 10 11 12 13 15 16 17 17 19 19 4 9 12 4 5 11 23 23 14 14 2 3 2 1 1 3 2 2 2 3 1 2 3 1 4 3 5 5 3 4 4 2 3 4 4 4
17 15 14 13 11 11 11 10 10 11 11 12 14 15 15 15 16 17 13 12 6 3 5 4 3 6 7 15 10 2 2 3 2 3 3 2 4 2 1 2 3 4 2 3 3 4 3 6 6 5 4 2 3 3
18 16 15 14 13 13 12 11 11 11 11 12 14 15 14 15 16 16 13 8 3 0 1 5 10 4 6 5 5 2 4 3 3 2 2 2 1 1 2 2 2 3 3 3 1 4 4 3 3 3 3 4 6 6
18 16 15 15 15 14 13 12 11 11 11 12 13 14 14 15 17 15 4 2 3 0 2 5 20 4 5 6 6 3 5 3 2 2 2 1 1 2 1 2 2 1 2 2 3 5 3 2 4 5 1 1 5 5
18 16 15 15 14 13 13 12 11 10 11 12 13 14 13 14 16 6 3 3 6 5 1 3 6 5 1 5 4 5 4 3 3 2 2 2 3 3 2 0 4 2 2 5 4 3 2 3 5 4 2 5 4 6
17 15 15 15 14 13 12 11 10 10 11 12 13 13 13 12 13 3 4 1 6 13 1 4 5 4 0 3 2 2 3 1 3 1 1 1 2 3 2 3 5 3 3 2 6 7 5 1 3 4 6 8 7 5
14 13 13 15 15 13 12 10 10 9 10 12 13 14 14 12 9 7 1 3 5 1 1 1 4 3 4 1 2 1 2 2 2 2 1 2 2 2 2 6 4 5 5 5 5 4 7 5 4 4 6 4 3 3
16 14 12 14 14 13 12 10 9 9 9 12 13 13 4 1 2 2 2 4 2 1 1 1 2 3 4 2 1 3 2 1 1 1 2 3 1 2 6 6 4 4 6 8 6 7 7 8 6 6 4 3 1 2
20 19 16 15 14 12 11 10 8 7 9 11 7 2 3 1 3 3 1 3 3 2 1 3 1 3 3 2 1 1 2 1 1 4 2 2 3 4 3 6 7 6 6 7 7 6 4 5 6 3 3 2 3 4
24 21 19 18 15 13 11 10 7 6 6 1 3 2 6 4 1 2 1 1 0 2 3 4 5 2 1 2 2 1 2 0 1 3 3 0 3 4 8 6 6 7 10 8 9 7 7 5 5 6 5 7 5 4
23 23 21 19 16 14 12 10 7 4 1 3 7 7 4 2 2 0 2 3 3 4 3 4 5 4 1 3 2 1 2 2 4 1 1 2 2 3 4 7 8 10 12 10 13 8 8 9 7 6 4 6 7 7
24 22 22 21 17 16 13 11 8 5 5 2 1 2 2 1 3 3 4 3 3 3 2 2 1 3 2 2 2 2 2 4 1 2 1 2 1 4 3 2 5 11 12 10 9 10 6 2 2 3 5 7 9 11
20 21 21 22 19 17 13 11 8 4 1 1 2 3 4 3 4 4 4 3 4 2 1 2 2 2 0 2 2 2 3 1 1 1 1 1 2 2 3 2 4 4 5 6 7 9 10 9 7 6 6 6 8 10
21 21 20 23 19 16 14 11 7 5 1 2 2 3 5 5 3 4 4 3 2 2 1 1 3 3 2 2 0 2 2 2 1 1 2 2 2 3 4 6 6 6 5 6 9 8 11 13 12 14 14 12 13 14
20 16 17 24 20 17 14 10 7 2 2 2 3 3 3 1 3 2 2 1 2 2 0 1 3 2 1 2 2 3 1 2 2 2 2 2 2 3 4 5 7 10 11 12 13 14 14 14 15 16 14 12 14 14
19 5 21 25 21 17 14 6 5 2 3 3 3 4 3 4 4 2 1 2 1 1 1 2 2 2 1 0 2 2 2 2 2 2 2 2 3 5 6 9 11 12 13 15 15 14 12 12 12 10 8 12 9 9
10 25 27 25 23 16 6 3 2 3 4 4 2 4 2 2 2 2 2 2 1 2 2 1 3 2 1 0 2 2 1 1 2 1 3 4 6 10 11 11 14 15 14 14 13 13 10 12 10 9 4 2 1 3
23 28 26 24 20 6 5 4 4 3 5 2 3 3 2 2 1 4 2 3 1 1 4 2 3 1 2 2 2 0 1 1 2 3 3 10 9 11 14 13 12 11 11 9 4 3 4 6 6 3 4 1 2 0
26 26 24 22 6 2 2 3 5 2 3 3 2 1 1 1 1 1 3 4 3 2 4 2 2 2 3 2 3 3 2 1 1 4 4 4 8 12 10 10 7 4 7 7 10 9 10 11 11 9 8 6 5 1
21 15 19 8 3 4 2 1 2 3 2 1 1 1 1 2 3 4 4 4 4 1 1 2 2 1 3 3 3 3 4 3 2 3 3 3 9 8 6 8 7 7 7 7 7 9 9 9 10 10 10 10 10 11
8 16 6 7 3 3 2 5 3 2 1 2 1 1 3 2 2 3 3 3 1 2 2 2 2 2 3 4 5 6 6 6 9 10 10 8 2 2 3 6 5 6 8 9 7 8 10 11 13 15 15 14 15 16
16 5 3 5 2 1 3 5 1 2 1 3 2 3 3 2 1 3 1 2 3 3 4 4 5 6 7 7 5 6 5 7 6 3 1 1 4 5 6 6 5 6 7 9 9 12 13 13 15 17 17 18 18 17
6 3 3 3 4 3 1 2 2 3 3 3 2 2 2 2 2 2 2 3 3 2 2 4 4 2 3 4 2 3 3 1 3 5 6 8 7 8 9 11 11 10 9 11 12 13 15 16 15 16 17 19 19 15
1 4 3 4 2 2 2 3 3 3 2 2 1 0 1 0 1 1 2 2 2 2 2 4 5 3 1 1 1 1 2 3 3 3 8 9 12 12 14 12 11 10 9 11 11 11 11 12 12 11 9 8 7 7
2 2 2 2 3 2 1 2 1 2 2 2 1 2 1 0 2 4 2 2 2 2 2 3 3 2 2 2 1 2 2 3 4 6 5 6 11 15 9 5 2 3 4 3 3 4 5 6 5 7 10 9 6 5
1 2 1 1 1 1 2 2 2 1 2 2 2 2 1 2 3 3 2 3 2 2 2 2 4 4 3 5 5 4 4 2 2 3 3 2 8 8 6 4 7 6 5 6 6 7 6 3 5 5 4 6 10 13
2 1 2 1 2 1 1 2 2 3 2 3 3 3 2 3 3 1 2 2 2 3 6 8 7 7 6 5 5 5 4 6 8 9 6 7 9 9 11 9 5 3 2 3 1 4 6 10 8 6 7 11 13 14
1 1 1 2 1 2 3 3 2 3 2 3 2 3 2 2 1 0 0 3 5 6 8 5 3 4 5 5 5 6 7 6 2 1 3 2 1 4 7 8 8 8 9 9 8 4 3 7 13 10 11 11 11 11
2 3 2 2 2 3 3 4 2 1 1 3 2 1 1 1 2 2 4 2 1 2 2 3 7 10 12 12 13 11 9 7 11 13 7 6 12 11 12 10 8 6 4 4 5 8 8 6 6 7 6 7 10 9
4 4 3 3 1 0 2 1 2 3 1 2 3 3 2 1 4 3 6 7 6 5 7 10 12 12 14 14 9 6 6 6 13 21 16 9 9 10 12 12 11 9 7 6 6 2 3 3 3 6 8 7 8 10
4 4 1 2 3 3 2 2 1 2 2 1 2 3 2 3 2 3 9 15 15 15 18 15 16 17 12 8 12 7 7 9 10 13 15 14 13 10 10 8 8 7 5 4 7 5 6 5 5 7 7 7 7 6
4 5 5 3 1 2 2 3 2 2 3 2 2 4 3 3 4 5 4 14 20 20 16 14 14 10 8 15 20 19 17 17 16 15 13 12 11 9 8 7 5 3 4 6 7 8 9 9 8 8 7 5 4 3

GFSWCAN_925_spd_036.txt.gz
Wind_Speed
20 18 17 14 10 9 8 8 9 10 11 13 14 16 17 18 18 14 2 10 5 1 5 3 3 2 3 2 2 4 3 3 4 4 2 2 2 0 3 1 2 3 4 2 2 4 6 4 4 4 4 2 4 6
20 20 17 14 11 9 9 8 8 9 10 11 13 15 15 16 17 15 2 8 10 4 5 6 20 23 15 14 3 2 2 1 1 3 1 2 2 3 1 1 4 2 4 2 5 4 2 4 3 4 2 1 2 5
22 21 18 15 12 11 10 9 8 9 10 10 12 14 14 14 15 15 8 10 4 3 5 4 2 6 6 15 11 2 2 2 1 1 3 2 4 3 2 1 1 3 2 2 2 1 3 5 6 3 2 3 1 4
23 21 18 15 13 12 12 10 9 9 9 10 11 13 13 14 14 14 8 4 3 2 1 5 8 3 5 5 8 8 3 2 2 2 2 2 3 1 2 2 2 4 1 4 2 4 4 3 3 5 7 5 4 4
22 19 17 15 14 13 13 11 9 9 9 10 11 12 13 14 14 12 3 4 3 2 2 5 18 3 5 4 4 3 3 3 2 2 2 1 1 3 1 1 2 1 4 3 4 3 3 5 5 5 3 2 4 5
19 18 17 15 14 13 12 11 9 8 8 10 11 12 12 13 14 2 2 3 8 6 2 3 5 5 5 2 3 5 4 3 2 2 1 2 2 2 3 1 4 2 3 4 4 5 3 3 4 3 1 3 1 5
18 18 17 15 14 13 12 11 8 7 7 10 10 11 11 11 12 2 3 1 4 11 2 4 5 3 3 2 3 2 3 2 2 1 1 0 1 3 2 3 5 3 1 5 5 6 0 2 1 3 4 5 4 5
17 17 16 15 15 13 12 10 7 6 7 10 11 12 12 11 8 4 2 4 5 2 1 1 4 4 4 0 0 2 2 2 3 1 1 1 2 2 1 7 5 4 2 2 5 3 3 3 3 4 6 4 5 4
18 15 14 14 14 14 12 9 6 6 7 9 11 11 2 0 1 2 2 2 1 1 1 1 2 3 3 1 1 2 2 1 2 1 1 3 2 2 5 3 5 3 5 6 3 3 6 6 5 3 3 4 3 4
19 17 16 13 12 13 11 8 6 5 6 9 6 1 2 1 1 1 1 2 3 2 2 3 1 3 2 1 1 1 2 1 0 2 1 2 2 3 4 5 6 9 8 6 6 4 1 1 2 2 2 2 2 3
20 20 18 15 14 12 9 7 6 3 4 1 2 1 3 3 2 2 1 1 0 2 3 3 5 2 1 2 2 0 2 0 1 3 2 1 2 3 8 7 7 6 10 9 9 7 7 5 3 3 4 6 7 6
27 22 20 17 15 12 9 9 7 2 1 2 4 4 3 3 3 1 2 2 3 4 3 3 4 5 2 2 2 2 2 1 2 1 2 1 2 2 5 6 7 9 11 10 12 7 6 5 3 1 2 5 7 9
22 24 23 18 16 13 11 10 7 4 2 1 1 1 3 1 3 3 4 3 2 2 2 2 2 2 1 1 2 2 2 3 0 2 1 1 1 2 3 4 4 9 10 9 8 7 8 7 7 5 7 9 12 14
17 24 24 22 18 15 12 10 7 4 1 1 2 2 3 2 4 4 4 3 4 2 2 1 1 2 1 2 2 1 1 1 1 0 1 2 3 1 3 3 4 7 8 7 7 8 9 10 12 14 14 14 14 17
17 24 23 23 20 17 13 11 8 4 1 1 1 2 4 4 4 4 4 2 3 1 2 2 1 2 1 3 0 2 1 2 1 1 2 2 3 1 3 3 5 5 6 7 9 9 12 13 13 16 17 17 19 22
21 23 19 23 21 18 15 11 6 2 1 1 2 2 4 0 3 2 2 4 2 1 1 1 2 2 2 2 2 3 1 2 2 2 2 0 2 3 4 5 8 10 10 11 12 13 14 14 14 15 16 16 18 18
17 7 19 22 22 19 15 5 4 2 2 2 3 3 2 4 4 3 1 2 1 1 2 2 2 2 2 2 1 1 2 2 2 1 1 2 4 6 6 10 12 14 13 14 15 13 14 14 13 12 9 11 11 12
16 22 28 27 25 17 6 1 2 2 4 4 1 3 2 3 2 3 2 1 0 1 2 2 3 2 2 2 2 2 1 1 1 1 2 4 6 8 9 11 14 14 13 13 13 11 8 9 8 6 4 1 4 6
25 26 27 24 16 5 4 4 3 2 4 2 3 2 2 2 2 3 2 3 1 1 3 2 3 2 2 2 2 2 1 0 1 2 3 8 7 8 12 12 11 10 7 6 5 4 5 6 6 4 3 3 5 6
28 27 25 15 4 1 2 2 4 2 2 2 1 2 2 2 1 1 3 4 2 2 3 2 2 2 3 2 3 2 2 1 0 4 3 4 8 9 8 10 9 8 5 6 9 8 8 8 9 9 7 7 7 7
21 17 9 6 2 1 2 1 2 3 2 1 1 0 1 1 3 4 4 4 3 1 1 2 2 2 2 2 3 3 4 3 3 3 3 3 8 10 5 6 7 7 5 6 6 8 10 9 8 9 10 11 11 11
9 11 4 4 2 2 2 5 2 1 1 1 1 2 2 2 2 2 3 3 1 2 2 2 2 2 2 3 4 5 8 8 9 10 11 9 2 2 2 4 4 6 7 9 10 9 10 10 11 13 15 16 16 15
14 4 2 4 2 1 3 1 3 3 2 3 2 3 2 2 2 3 2 2 3 3 4 3 4 5 6 9 8 8 7 9 7 7 3 1 4 4 4 6 7 9 9 12 11 12 13 14 16 17 17 17 17 16
2 3 3 3 4 2 1 2 1 2 2 3 2 2 2 2 3 2 2 3 3 3 2 4 4 2 3 4 2 3 5 3 3 5 5 8 7 8 10 12 13 13 14 14 14 15 14 12 12 14 14 14 12 11
1 3 3 4 2 1 2 2 2 3 1 1 1 0 1 1 1 1 2 3 2 2 2 3 4 3 1 1 2 2 5 5 6 5 6 12 14 13 13 13 12 11 11 13 11 11 9 8 6 6 7 10 12 10
1 2 2 1 2 2 1 2 1 1 1 1 1 1 1 1 2 4 2 2 2 2 2 3 3 2 1 1 0 2 4 4 6 8 7 8 11 14 9 6 3 3 5 4 6 5 3 4 7 8 6 5 3 1
1 1 1 1 2 2 2 1 1 2 2 3 2 3 1 2 3 3 2 3 2 3 2 3 4 4 4 4 4 3 5 6 6 6 5 3 5 5 2 1 4 5 4 7 8 7 6 7 7 6 5 1 7 7
3 2 2 1 1 0 1 1 2 3 3 2 3 4 2 3 3 2 2 3 4 5 7 9 11 10 7 4 3 3 3 3 2 0 2 3 5 6 8 10 9 5 2 1 3 5 5 4 1 3 3 2 3 5
1 2 2 2 2 2 3 3 2 3 2 3 2 3 2 1 1 2 1 2 4 11 13 11 7 5 3 2 1 3 4 2 3 4 3 1 1 2 2 3 4 3 3 5 5 5 2 7 5 1 3 2 4 6
2 3 3 3 2 3 3 4 2 1 3 3 1 1 1 2 2 3 5 4 6 8 6 4 3 3 3 6 7 5 3 4 7 5 5 5 8 6 5 4 3 2 2 2 0 3 5 4 2 4 5 6 8 8
4 4 2 3 3 3 3 2 4 2 2 2 3 2 2 2 1 3 4 4 3 2 3 4 5 5 7 6 6 7 6 4 9 14 11 8 8 7 8 8 7 7 6 6 5 4 5 7 5 5 6 7 7 7
4 5 2 2 2 2 2 0 0 1 1 3 4 3 3 3 1 2 6 11 10 10 13 11 12 13 8 11 9 8 7 8 5 9 18 14 9 9 8 10 11 11 10 9 8 7 5 3 2 2 1 2 2 3
2 3 2 0 1 3 3 3 4 3 3 3 2 0 0 1 3 4 6 16 20 18 16 13 13 11 7 5 7 5 4 6 7 7 8 9 7 6 5 5 5 5 4 4 5 6 6 4 3 3 2 2 2 2

GFSWCAN_925_spd_042.txt.gz
Wind_Speed
27 25 23 21 18 14 9 8 6 3 6 7 9 12 13 14 13 8 3 6 5 4 5 3 4 6 5 4 4 5 5 2 2 5 5 4 8 4 3 3 1 5 5 5 2 5 6 1 4 5 5 5 4 7
28 25 24 22 20 15 11 9 7 3 4 6 8 10 12 12 11 9 2 4 5 6 5 5 12 14 12 8 6 3 3 5 5 4 1 3 3 4 1 6 2 3 4 3 5 5 3 3 4 4 3 3 3 6
30 25 25 22 21 17 13 10 8 4 3 5 6 8 10 10 10 9 3 6 3 3 5 5 2 0 2 5 6 4 3 4 2 3 4 2 1 4 5 3 3 3 1 1 3 5 5 3 3 3 4 3 2 7
30 27 25 23 21 18 14 11 9 5 5 4 5 6 8 8 8 9 2 4 3 5 4 5 2 2 1 1 4 4 4 3 3 3 3 3 2 3 2 3 4 6 2 2 2 2 1 2 3 3 3 3 6 7
30 31 27 24 22 19 16 13 9 7 6 5 4 5 7 8 7 4 1 2 3 5 4 2 1 2 2 4 3 2 2 2 2 2 3 2 2 3 1 2 4 1 2 5 4 3 2 5 3 1 3 5 8 9
30 32 27 24 22 19 16 13 10 9 7 5 5 4 6 8 6 1 4 2 1 5 4 2 3 2 3 4 3 3 2 1 1 3 2 1 1 4 3 3 4 1 1 3 3 2 2 4 2 3 7 9 10 10
33 35 29 26 23 20 16 13 11 9 7 5 4 5 6 7 7 4 4 2 4 5 3 3 3 4 2 4 3 1 2 1 2 0 3 3 2 3 3 3 8 3 3 3 3 3 4 3 4 7 9 12 11 11
42 37 31 26 23 19 16 13 11 9 7 5 4 5 7 7 3 3 1 3 2 5 4 3 2 5 3 5 4 1 1 2 3 1 3 4 2 3 4 5 3 3 4 1 3 3 4 3 4 7 8 9 8 8
36 32 28 24 21 18 16 14 12 9 6 4 3 5 1 1 4 3 1 1 1 4 3 2 3 2 3 3 0 4 2 3 2 3 2 3 4 5 4 5 6 6 6 5 6 3 3 0 4 4 7 7 8 3
24 23 21 20 18 18 16 15 13 8 6 3 1 3 3 3 2 1 2 3 4 3 3 4 1 3 3 4 5 2 3 2 3 3 2 4 5 5 3 4 5 7 7 6 6 5 2 3 3 4 4 4 4 4
27 25 18 16 17 18 17 15 12 9 4 3 5 1 3 3 3 3 3 3 3 4 4 3 3 4 3 4 3 1 3 1 3 4 3 4 4 5 3 6 6 6 6 4 3 3 3 4 3 3 3 5 6 7
19 20 22 18 18 19 17 15 13 8 4 4 2 2 2 4 2 4 3 3 4 2 4 4 2 4 2 2 3 3 3 1 3 5 3 4 5 5 5 7 7 8 9 9 8 6 6 6 6 6 7 8 9 9
22 20 19 18 20 19 17 15 14 8 7 3 2 3 3 3 3 5 7 4 3 4 3 3 4 3 4 3 3 3 5 4 3 4 3 3 6 6 5 4 5 7 8 7 7 7 7 7 7 7 9 9 11 11
23 23 21 19 19 17 15 15 12 8 2 3 4 2 4 4 4 3 2 2 5 1 2 2 3 3 2 4 2 3 2 2 3 4 2 4 8 7 4 4 4 6 7 8 8 8 9 9 9 10 10 11 12 14
25 26 20 22 19 17 15 14 11 4 2 3 3 3 5 0 2 1 1 2 3 2 2 3 2 2 3 3 2 3 3 4 2 1 3 5 6 4 3 3 6 6 7 9 10 10 9 9 10 10 10 10 12 14
28 20 20 23 21 18 15 12 7 3 2 2 3 4 3 3 4 5 4 3 1 2 1 2 3 3 4 2 3 4 2 2 2 3 6 6 5 2 2 5 8 9 10 11 11 11 10 10 10 11 11 12 13 13
27 6 26 27 24 17 15 6 5 4 2 2 3 3 2 1 1 1 1 0 1 3 4 3 4 2 1 3 3 1 1 2 5 6 5 5 3 4 5 7 8 9 9 9 9 9 9 9 8 8 9 8 7 7
9 27 29 28 25 16 4 2 2 3 4 4 4 5 2 1 2 1 2 2 3 2 2 1 1 3 2 2 1 2 4 5 4 4 4 3 3 4 5 6 8 9 9 8 9 8 6 5 4 3 6 4 5 6
33 35 30 27 15 7 4 3 3 2 4 3 3 3 2 1 1 1 1 2 3 2 3 3 2 3 0 1 1 3 4 3 2 2 2 2 3 4 5 4 6 5 5 4 5 3 2 3 3 4 4 4 5 6
34 30 26 10 4 3 3 3 3 3 4 3 3 3 1 1 3 2 2 1 2 2 3 3 2 4 2 3 3 3 3 3 2 3 3 1 3 4 5 5 5 4 1 1 1 2 2 3 3 4 5 5 4 6
25 19 9 4 1 0 1 2 4 2 1 2 3 4 3 4 4 3 2 2 4 1 3 0 0 4 4 3 2 1 0 3 3 3 5 4 5 7 6 5 5 2 1 2 4 4 4 4 4 3 5 6 6 6
12 7 2 2 0 1 2 3 2 0 2 2 4 3 3 4 3 2 2 3 3 1 1 1 1 0 2 3 2 3 4 5 6 6 6 6 3 3 3 3 2 4 5 4 5 5 4 4 4 6 6 6 8 11
6 3 2 1 1 1 2 3 3 1 3 4 4 4 2 2 2 1 3 1 1 1 1 1 1 2 5 5 6 7 7 7 6 6 5 5 5 4 2 5 7 6 6 5 7 11 10 7 6 5 4 3 5 7
2 1 1 0 2 1 2 2 1 1 1 2 2 2 2 2 3 2 2 1 1 1 2 2 3 3 3 4 3 5 2 3 4 5 3 6 4 4 6 9 10 9 9 9 10 10 10 5 2 4 4 7 8 8
3 0 2 2 2 2 2 2 1 1 1 1 1 2 2 1 1 1 2 2 2 2 2 3 3 2 2 2 3 3 1 3 5 6 5 10 9 9 7 9 10 10 10 10 9 8 6 4 4 6 6 9 8 8
2 2 0 2 3 1 2 2 2 2 2 2 1 2 2 2 1 3 2 0 1 2 2 2 3 3 2 1 1 1 2 4 8 11 12 13 11 11 9 8 8 8 3 2 3 2 0 3 5 5 5 5 3 4
1 2 1 1 1 1 2 1 1 1 2 3 2 3 2 2 3 1 0 1 1 2 3 1 2 2 2 2 3 4 7 8 9 10 10 6 5 4 4 4 4 6 3 2 2 2 2 2 4 5 6 6 4 3
2 1 1 2 2 0 1 1 3 3 2 2 2 4 2 2 1 2 1 1 3 3 1 2 2 3 4 2 5 6 6 5 6 6 6 5 4 3 1 1 1 1 2 2 4 6 6 5 3 1 4 5 3 3
1 1 2 2 2 2 2 3 1 0 1 3 1 2 2 0 1 2 2 2 3 4 4 5 6 7 5 5 5 6 8 10 11 8 9 6 8 10 6 5 6 4 3 4 4 2 1 1 2 3 3 2 2 4
2 3 2 2 2 3 2 3 1 1 1 1 2 1 1 2 3 5 3 7 10 9 12 10 9 8 8 8 8 6 5 5 5 5 3 5 4 5 7 6 5 4 3 2 1 2 3 4 4 5 4 6 6 7
3 2 1 2 2 3 1 3 5 5 2 3 4 2 2 1 2 2 5 11 12 10 8 7 5 4 3 2 3 4 6 5 3 3 1 5 8 6 5 4 4 4 4 4 5 6 8 8 8 8 7 5 6 6
4 5 2 3 1 1 1 1 2 2 2 1 1 1 1 2 6 7 12 10 8 7 7 5 3 2 3 5 4 4 3 2 1 5 8 7 4 3 3 5 6 6 7 8 9 9 6 7 7 5 4 2 4 4
3 3 3 0 1 1 2 2 2 1 0 6 6 6 4 3 4 7 13 15 13 9 7 4 4 5 4 3 1 4 5 5 7 7 3 9 8 4 1 2 0 1 3 4 5 6 4 3 3 3 3 3 3 2

GFSWCAN_925_spd_045.txt.gz
Wind_Speed
37 31 25 25 23 20 15 11 8 6 5 7 8 10 12 11 9 3 0 6 7 4 4 4 5 6 8 6 9 11 7 6 7 9 10 7 9 12 12 6 12 15 13 13 15 11 7 5 2 5 8 4 8 9
37 31 27 27 24 21 16 12 9 7 5 6 7 8 10 10 8 4 2 3 6 6 6 5 7 7 7 7 7 6 5 4 6 5 4 3 9 1 16 7 3 3 6 4 10 5 1 10 9 9 4 6 7 8
37 35 31 28 25 23 18 14 10 8 6 5 5 7 9 10 9 5 5 7 6 4 6 8 4 4 2 3 4 5 4 5 2 6 5 3 1 12 5 7 5 4 3 0 6 6 10 7 7 8 4 6 6 8
40 36 30 28 26 23 19 15 11 9 7 6 5 6 8 9 9 6 4 6 6 5 4 5 3 4 1 1 1 1 5 5 5 5 3 4 8 11 10 5 8 6 5 3 1 7 6 8 8 6 6 4 6 6
41 37 30 29 25 24 20 16 13 10 8 6 5 6 7 8 7 4 2 3 5 6 5 4 5 4 6 4 3 1 2 5 3 3 5 3 7 8 8 6 3 5 5 1 3 7 4 9 5 1 4 7 7 8
41 35 33 28 26 23 20 17 13 10 8 7 5 6 7 7 6 3 5 2 4 6 4 3 9 6 6 6 5 2 2 3 2 3 2 3 2 4 6 8 12 7 5 9 6 4 6 6 4 3 5 6 7 7
36 35 32 28 26 24 21 17 13 10 9 7 4 6 6 6 6 5 5 3 5 4 3 4 5 7 6 8 10 6 5 3 3 2 3 7 8 5 8 9 6 7 8 7 7 1 5 6 6 7 8 7 6 11
35 30 33 31 28 24 20 16 12 11 9 5 5 5 4 5 3 4 2 2 4 6 4 4 1 4 10 8 7 3 6 5 6 3 2 3 2 4 5 5 3 9 13 4 6 9 7 5 6 8 9 14 17 11
34 34 37 35 29 23 18 15 13 11 8 5 4 3 2 3 4 5 2 3 3 5 4 3 7 4 6 9 1 2 3 5 4 5 7 7 8 7 8 2 2 5 6 5 3 1 2 2 6 13 12 12 7 4
36 43 40 34 29 23 19 16 15 12 8 4 3 7 4 4 1 2 3 4 5 5 4 6 4 3 3 6 7 4 3 6 4 8 6 5 11 4 5 4 5 5 4 5 5 6 5 3 2 4 11 7 15 13
36 38 35 32 26 23 20 18 17 12 7 5 6 0 7 6 5 4 3 4 5 4 5 7 6 6 4 5 3 5 2 4 5 5 5 6 7 8 7 3 2 3 4 2 2 3 3 6 3 4 3 3 6 4
22 25 24 24 22 22 22 21 18 12 6 1 4 4 5 4 3 4 4 4 5 4 4 5 5 7 3 2 2 4 2 4 5 2 4 8 5 8 8 7 4 5 6 6 6 5 6 5 5 4 3 2 1 1
25 27 26 23 21 23 22 20 19 7 6 5 5 4 2 3 1 5 8 5 5 4 4 6 6 4 3 4 4 3 3 5 4 3 5 4 7 6 4 6 6 5 4 5 5 4 4 3 1 3 6 6 6 7
22 23 25 23 21 21 19 19 18 11 4 4 4 1 5 5 5 5 6 4 7 1 5 3 3 4 3 2 4 3 4 3 5 5 3 5 8 6 5 4 4 3 4 5 5 5 6 5 6 8 8 8 9 10
24 24 23 22 20 18 17 17 14 5 3 3 4 3 7 4 2 3 3 2 4 2 3 3 3 3 6 4 3 2 4 5 1 2 4 7 9 5 5 2 2 3 5 7 8 8 8 8 8 8 8 10 10 11
26 21 15 23 20 18 17 14 9 4 3 3 3 5 2 6 7 6 7 5 5 3 3 4 3 4 4 3 3 6 4 2 4 6 5 7 7 5 4 2 5 6 8 9 10 10 9 8 9 9 10 9 8 7
25 4 22 23 19 16 17 8 8 4 4 3 5 5 6 4 2 3 4 3 3 3 4 2 3 5 2 3 4 2 2 3 5 4 5 6 5 5 5 5 8 8 9 7 7 6 7 8 7 7 7 8 7 5
8 24 27 27 21 15 7 4 4 3 5 6 4 6 5 1 2 1 3 3 2 2 3 3 3 3 4 3 2 3 5 5 3 5 5 5 4 4 5 6 5 5 6 6 8 8 5 6 5 4 6 6 7 7
28 31 27 25 15 5 6 5 4 3 8 6 3 3 4 5 4 5 4 4 4 2 3 2 3 1 3 2 5 4 4 2 1 2 3 4 3 6 5 6 4 3 3 2 5 4 3 5 5 7 7 7 6 9
32 31 28 19 9 2 1 2 3 4 3 4 6 8 3 1 5 7 5 5 6 6 3 3 3 3 3 6 4 4 2 1 4 4 2 5 6 4 4 7 4 7 2 4 4 4 3 3 4 2 5 6 6 6
27 22 13 8 10 6 4 4 5 2 2 3 4 3 3 5 5 4 2 3 5 2 3 1 2 6 9 7 6 7 2 3 5 5 5 5 6 6 5 4 4 4 3 2 1 2 2 4 5 4 3 3 3 2
17 7 6 6 4 5 3 3 2 2 2 3 5 5 4 4 5 2 1 4 3 1 1 2 3 1 3 3 3 4 7 6 7 7 4 3 2 3 2 3 2 2 2 3 3 3 4 3 5 3 0 2 1 11
6 2 3 3 2 1 3 4 4 4 4 6 4 4 3 3 3 2 3 1 3 4 2 1 3 2 4 4 5 6 7 8 9 3 1 1 2 3 1 2 6 6 4 3 6 10 9 6 4 5 4 8 10 5
1 2 2 2 3 2 3 3 3 2 3 4 4 4 2 2 1 3 2 1 3 3 3 3 5 4 3 2 4 4 3 2 2 1 1 3 2 4 7 10 10 9 9 11 10 11 8 5 5 4 2 6 6 5
2 3 2 3 3 3 4 4 1 2 2 1 2 2 3 1 1 2 1 4 2 1 2 3 4 2 2 3 2 4 3 1 2 3 5 6 10 8 8 13 13 10 9 9 8 10 11 7 5 3 6 8 9 5
1 4 2 3 3 2 3 3 3 2 1 1 1 2 2 2 1 2 2 4 2 1 2 3 4 2 1 2 1 1 1 5 8 9 14 14 14 10 7 6 6 6 4 3 7 5 3 7 3 3 2 5 4 7
2 2 3 3 2 1 1 2 2 1 2 3 2 2 1 2 3 1 3 3 2 4 5 2 1 2 2 2 4 5 10 11 11 7 11 9 10 11 7 4 7 1 7 5 8 8 0 3 3 5 6 3 4 3
3 3 2 4 3 3 2 2 3 3 3 2 2 3 2 2 1 2 4 4 5 2 2 1 1 3 6 5 7 11 12 9 7 8 8 6 5 2 2 6 8 4 4 4 2 3 4 7 3 3 8 5 1 1
1 2 3 4 3 3 3 2 1 1 3 3 2 1 3 3 4 5 4 3 1 1 3 6 9 8 9 11 9 7 8 9 7 5 8 2 11 4 7 7 8 8 10 9 4 1 3 5 6 5 9 5 5 5
1 1 1 1 2 0 2 0 3 3 4 1 2 3 3 3 1 4 2 4 5 7 14 12 12 8 5 6 9 12 15 14 17 12 7 10 13 17 10 6 6 5 3 3 9 9 6 6 9 7 10 10 4 7
2 0 1 1 2 3 5 4 3 2 2 2 3 2 2 2 1 2 5 8 14 15 12 11 14 18 19 13 7 11 14 8 8 1 7 4 5 5 6 5 5 4 3 3 4 7 6 7 8 10 6 2 4 5
2 3 2 3 2 1 1 1 1 1 1 1 2 2 2 3 7 6 15 17 12 11 14 2 4 15 1 3 5 8 12 4 1 3 5 5 1 3 3 6 5 3 5 7 8 8 6 7 9 7 5 6 3 5
2 2 3 0 1 1 2 3 4 5 3 4 4 7 7 7 8 6 15 14 13 7 3 3 5 5 3 2 3 1 0 3 2 2 4 7 7 3 5 8 2 3 8 7 8 8 7 4 6 6 7 6 6 5

GFSWCAN_925_spd_048.txt.gz
Wind_Speed
45 39 36 30 25 21 18 14 11 9 8 9 10 12 14 12 13 12 7 6 6 6 4 5 7 6 6 4 7 10 9 8 8 10 10 12 8 4 9 14 14 10 10 12 13 17 14 15 12 3 6 16 15 14
46 41 36 30 25 22 19 15 12 10 8 8 9 10 12 12 11 10 5 4 7 6 8 7 8 6 6 4 5 7 8 4 6 7 7 6 6 6 9 10 13 5 4 2 8 3 2 11 11 11 2 1 9 9
46 41 37 30 24 21 20 16 13 10 8 7 8 9 11 11 9 10 8 8 10 6 9 12 10 4 4 4 6 5 4 5 3 5 5 6 4 5 5 5 15 4 4 6 21 5 6 5 9 7 5 4 7 9
46 42 37 31 26 23 22 18 14 11 8 7 7 9 10 11 9 8 7 6 9 8 5 9 5 5 4 2 2 1 4 6 8 7 8 8 4 2 1 3 7 13 7 8 6 12 11 13 7 7 5 4 6 5
45 42 36 32 28 25 22 19 15 11 10 8 8 8 9 10 10 8 10 4 4 7 5 2 6 5 9 4 5 2 2 5 6 5 4 6 3 5 5 3 5 14 12 7 4 6 10 8 3 7 7 5 8 8
44 42 40 33 28 25 23 20 16 13 10 8 8 8 8 9 9 7 4 3 6 8 4 3 10 6 6 6 6 5 6 5 4 4 5 2 10 3 4 4 9 4 13 10 11 15 15 11 5 6 4 10 8 8
42 43 38 32 29 27 24 21 17 13 10 8 7 8 7 8 8 7 5 4 8 6 3 3 4 6 8 7 9 7 9 6 3 3 3 3 2 3 4 8 11 8 9 14 24 6 8 8 8 6 18 19 24 24
43 43 36 34 29 27 24 20 16 12 9 7 7 7 8 8 8 7 2 3 7 5 5 4 2 7 9 6 6 6 3 5 5 5 3 3 4 1 4 9 11 5 9 12 15 24 12 12 23 21 24 22 17 15
40 41 36 36 31 27 24 20 15 11 8 6 4 5 5 4 5 5 0 4 3 5 4 4 7 4 5 7 6 3 3 6 5 6 7 5 7 5 8 11 12 7 4 6 11 13 11 9 20 15 12 10 9 3
38 37 37 32 32 28 23 18 14 11 7 4 3 5 4 6 3 1 2 4 5 5 4 5 8 2 5 5 4 3 1 6 7 9 8 8 8 12 13 12 4 3 5 4 2 10 9 8 17 12 10 10 11 8
37 31 31 37 35 32 25 19 16 12 6 4 6 2 7 7 4 5 4 4 5 4 5 6 9 8 4 1 5 6 4 7 6 5 6 7 9 10 10 6 3 1 2 5 4 6 7 11 11 11 2 16 11 11
32 35 33 38 34 30 26 20 17 11 5 4 6 1 5 4 4 4 4 3 4 5 5 6 6 6 3 4 4 4 2 5 4 2 3 7 6 11 8 6 3 6 5 6 8 7 7 10 8 16 16 4 7 5
31 39 46 38 35 30 26 22 22 7 2 3 5 5 2 2 1 5 7 4 5 2 4 4 3 3 3 2 3 3 1 4 8 4 4 2 6 8 6 7 7 4 3 4 4 3 5 4 6 8 4 4 6 5
24 26 28 31 29 27 24 22 21 8 4 4 4 3 4 4 5 5 8 6 5 7 7 7 5 4 4 3 3 3 4 4 1 2 5 0 5 7 7 6 7 8 8 6 5 6 8 7 8 7 7 6 4 4
24 25 25 26 25 24 22 20 18 6 5 4 4 3 8 7 5 7 8 3 1 1 3 2 3 4 2 3 3 3 4 4 3 1 3 3 6 6 5 4 3 5 4 6 10 10 10 10 8 7 7 10 9 10
25 26 20 23 22 20 19 19 12 5 4 3 3 5 6 5 5 3 3 4 7 5 3 2 2 4 3 6 6 6 4 1 2 2 2 3 5 6 3 5 5 8 6 5 6 7 7 8 9 9 8 10 11 9
17 6 23 23 19 18 19 10 7 4 4 3 4 6 7 1 4 5 5 6 5 4 2 2 3 6 2 3 8 3 3 5 7 6 5 2 3 3 2 6 8 6 5 2 3 4 5 5 7 7 8 7 7 8
12 26 26 23 21 16 9 7 5 5 5 6 6 6 2 5 4 1 3 7 4 4 3 2 2 6 4 6 3 2 5 2 5 8 5 5 5 4 7 6 4 6 5 4 5 3 1 4 3 4 4 4 6 11
29 28 25 23 13 6 6 5 5 4 8 6 4 4 3 3 3 2 1 3 3 1 2 3 4 4 2 4 2 5 4 4 4 5 5 7 5 4 3 4 4 6 6 4 5 7 7 5 6 6 6 7 6 7
23 26 25 15 2 4 2 3 2 4 3 3 5 5 3 3 3 4 3 5 6 5 5 4 3 4 4 6 8 5 3 1 3 2 6 4 8 2 7 7 6 5 4 2 2 1 2 4 7 8 6 5 4 5
19 17 17 5 2 4 4 4 4 1 3 2 6 4 2 2 4 1 7 4 4 2 5 2 3 5 12 7 7 7 7 8 5 6 7 6 11 7 7 4 4 3 3 3 3 5 4 5 3 3 2 3 7 6
18 14 3 1 3 3 3 3 1 1 2 3 2 3 2 2 3 3 3 5 4 3 2 2 4 5 5 6 7 8 9 7 6 8 6 1 3 3 3 3 1 2 3 4 3 1 3 3 2 4 4 5 3 1
9 3 4 5 5 3 4 5 2 3 3 5 3 3 3 3 4 6 3 2 1 6 2 7 8 5 6 5 6 6 5 6 7 6 6 4 3 0 1 2 2 2 1 1 2 6 9 4 4 5 8 7 5 6
1 2 2 2 3 3 5 4 4 2 3 4 4 4 2 4 4 4 2 1 3 7 1 3 4 5 7 4 3 6 3 2 2 2 3 3 2 1 3 5 6 5 9 7 10 8 6 2 3 9 11 5 6 5
2 4 2 4 3 2 1 3 3 2 2 3 2 2 3 3 3 3 1 4 1 3 4 5 5 1 4 5 2 2 2 0 2 2 4 5 4 4 7 9 12 12 8 7 8 6 4 2 2 6 8 11 5 4
2 4 2 2 3 1 0 2 3 6 5 2 2 3 2 3 2 1 2 2 3 2 3 6 4 3 1 2 2 1 1 2 1 6 8 11 12 9 5 2 3 10 14 12 1 3 12 4 3 1 1 1 0 7
2 1 3 3 1 2 2 2 2 1 1 1 3 4 2 2 2 1 5 8 4 5 4 3 2 3 1 5 3 5 6 5 7 6 7 8 8 6 5 1 3 7 5 5 3 3 2 2 6 6 2 2 4 3
2 2 3 4 2 3 1 2 4 3 3 2 1 1 2 0 1 3 3 4 3 4 1 2 3 3 4 7 10 10 10 11 13 14 11 12 13 14 12 6 4 4 5 4 1 2 3 6 11 10 6 6 7 0
2 2 2 4 5 1 2 0 2 4 5 5 3 3 4 3 4 4 3 3 3 0 3 3 6 9 8 9 14 16 14 16 8 4 5 4 3 1 5 9 7 8 9 7 5 1 4 5 3 4 7 10 8 3
1 1 2 4 1 0 2 3 2 2 3 2 4 2 4 4 6 7 7 5 4 4 10 15 11 11 11 12 7 9 14 18 11 6 6 7 10 8 12 15 12 6 9 14 9 5 3 4 7 6 7 10 8 11
2 1 1 1 2 2 4 7 4 4 2 2 1 1 1 2 5 4 5 6 8 10 9 5 5 7 8 3 3 8 11 6 4 4 6 6 11 10 12 7 5 3 5 4 4 9 10 12 6 13 7 5 14 8
2 1 0 2 2 2 2 2 1 1 1 1 2 2 2 3 1 3 7 10 11 8 6 8 9 11 9 16 18 6 5 4 9 5 6 10 7 7 4 5 4 7 7 5 7 8 7 8 10 8 6 3 5 7
2 3 4 2 1 2 4 4 5 5 5 4 4 9 11 9 6 7 13 14 13 13 14 23 16 12 9 1 6 11 10 5 4 3 4 7 8 10 12 5 6 8 4 4 10 9 5 3 9 10 9 10 10 8